Time,TemperatureF,DewpointF,PressureIn,WindDirection,WindDirectionDegrees,WindSpeedMPH,WindSpeedGustMPH,Humidity,HourlyPrecipIn,Conditions,Clouds,dailyrainin,SoftwareType,DateUTC
2013-09-30 00:00:00,51.0,51.0,29.57,WSW,247,2.0,4.0,100,0.00,,,0.00,Rainwise IP-100,2013-09-30 04:00:00,
2013-09-30 00:01:00,51.0,51.0,29.57,West,270,2.0,4.0,100,0.00,,,0.00,Rainwise IP-100,2013-09-30 04:01:00,
2013-09-30 00:02:00,51.0,51.0,29.57,WSW,247,2.0,4.0,100,0.00,,,0.00,Rainwise IP-100,2013-09-30 04:02:00,
2013-09-30 00:06:00,51.0,51.0,29.57,West,270,2.0,4.0,100,0.00,,,0.00,Rainwise IP-100,2013-09-30 04:06:00,
2013-09-30 00:07:00,51.0,51.0,29.57,West,270,2.0,4.0,100,0.00,,,0.00,Rainwise IP-100,2013-09-30 04:07:00,
2013-09-30 00:08:00,51.0,51.0,29.57,WSW,247,2.0,4.0,100,0.00,,,0.00,Rainwise IP-100,2013-09-30 04:08:00,
2013-09-30 00:11:00,51.0,51.0,29.56,NE,45,0.0,4.0,100,0.00,,,0.00,Rainwise IP-100,2013-09-30 04:11:00,
2013-09-30 00:12:00,51.0,51.0,29.56,NE,45,0.0,4.0,100,0.00,,,0.00,Rainwise IP-100,2013-09-30 04:12:00,
2013-09-30 00:13:00,51.0,51.0,29.56,NE,45,0.0,3.0,100,0.00,,,0.00,Rainwise IP-100,2013-09-30 04:13:00,
2013-09-30 00:16:00,51.0,51.0,29.56,NE,45,0.0,0.0,100,0.00,,,0.00,Rainwise IP-100,2013-09-30 04:16:00,
2013-09-30 00:17:00,51.0,51.0,29.56,NE,45,0.0,0.0,100,0.00,,,0.00,Rainwise IP-100,2013-09-30 04:17:00,
2013-09-30 00:18:00,51.0,51.0,29.56,NE,45,0.0,0.0,100,0.00,,,0.00,Rainwise IP-100,2013-09-30 04:18:00,
2013-09-30 00:21:00,51.0,51.0,29.56,NE,45,0.0,0.0,100,0.00,,,0.00,Rainwise IP-100,2013-09-30 04:21:00,
2013-09-30 00:22:00,51.0,51.0,29.56,NE,45,0.0,0.0,100,0.00,,,0.00,Rainwise IP-100,2013-09-30 04:22:00,
2013-09-30 00:23:00,51.0,51.0,29.56,NE,45,0.0,0.0,100,0.00,,,0.00,Rainwise IP-100,2013-09-30 04:23:00,
2013-09-30 00:26:00,51.0,51.0,29.56,NE,45,0.0,0.0,100,0.00,,,0.00,Rainwise IP-100,2013-09-30 04:26:00,
2013-09-30 00:27:00,51.0,51.0,29.56,NE,45,0.0,0.0,100,0.00,,,0.00,Rainwise IP-100,2013-09-30 04:27:00,
2013-09-30 00:28:00,51.0,51.0,29.56,NE,45,0.0,0.0,100,0.00,,,0.00,Rainwise IP-100,2013-09-30 04:28:00,
2013-09-30 00:29:00,51.0,51.0,29.56,NE,45,0.0,0.0,100,0.00,,,0.00,Rainwise IP-100,2013-09-30 04:29:00,
2013-09-30 00:31:00,51.0,51.0,29.56,NE,45,0.0,0.0,100,0.00,,,0.00,Rainwise IP-100,2013-09-30 04:31:00,
2013-09-30 00:32:00,51.0,51.0,29.56,NE,45,0.0,0.0,100,0.00,,,0.00,Rainwise IP-100,2013-09-30 04:32:00,
2013-09-30 00:33:00,51.0,51.0,29.56,NE,45,0.0,0.0,100,0.00,,,0.00,Rainwise IP-100,2013-09-30 04:33:00,
2013-09-30 00:34:00,51.0,51.0,29.56,NE,45,0.0,0.0,100,0.00,,,0.00,Rainwise IP-100,2013-09-30 04:34:00,
2013-09-30 00:37:00,51.0,51.0,29.56,NE,45,0.0,0.0,100,0.00,,,0.00,Rainwise IP-100,2013-09-30 04:37:00,
2013-09-30 00:39:00,51.0,51.0,29.56,NE,45,0.0,0.0,100,0.00,,,0.00,Rainwise IP-100,2013-09-30 04:39:00,
2013-09-30 00:42:00,51.0,51.0,29.56,NE,45,0.0,0.0,100,0.00,,,0.00,Rainwise IP-100,2013-09-30 04:42:00,
2013-09-30 00:44:00,51.0,51.0,29.56,NE,45,0.0,0.0,100,0.00,,,0.00,Rainwise IP-100,2013-09-30 04:44:00,
2013-09-30 00:46:00,52.0,52.0,29.57,West,270,4.0,5.0,100,0.00,,,0.00,Rainwise IP-100,2013-09-30 04:46:00,
2013-09-30 00:47:00,52.0,52.0,29.57,West,270,3.0,5.0,100,0.00,,,0.00,Rainwise IP-100,2013-09-30 04:47:00,
2013-09-30 00:49:00,52.0,52.0,29.57,West,270,3.0,5.0,100,0.00,,,0.00,Rainwise IP-100,2013-09-30 04:49:00,
2013-09-30 00:51:00,52.0,52.0,29.57,West,270,4.0,5.0,100,0.00,,,0.00,Rainwise IP-100,2013-09-30 04:51:00,
2013-09-30 00:52:00,52.0,52.0,29.57,West,270,4.0,5.0,100,0.00,,,0.00,Rainwise IP-100,2013-09-30 04:52:00,
2013-09-30 00:53:00,52.0,52.0,29.57,West,270,3.0,5.0,100,0.00,,,0.00,Rainwise IP-100,2013-09-30 04:53:00,
2013-09-30 00:54:00,52.0,52.0,29.57,West,270,3.0,5.0,100,0.00,,,0.00,Rainwise IP-100,2013-09-30 04:54:00,
2013-09-30 00:57:00,52.0,52.0,29.57,West,270,4.0,5.0,100,0.00,,,0.00,Rainwise IP-100,2013-09-30 04:57:00,
2013-09-30 00:58:00,52.0,52.0,29.57,West,270,3.0,5.0,100,0.00,,,0.00,Rainwise IP-100,2013-09-30 04:58:00,
2013-09-30 00:59:00,52.0,52.0,29.57,West,270,3.0,5.0,100,0.00,,,0.00,Rainwise IP-100,2013-09-30 04:59:00,
2013-09-30 01:02:00,52.0,52.0,29.58,West,270,2.0,5.0,100,0.00,,,0.00,Rainwise IP-100,2013-09-30 05:02:00,
2013-09-30 01:03:00,52.0,52.0,29.58,West,270,1.0,5.0,100,0.00,,,0.00,Rainwise IP-100,2013-09-30 05:03:00,
2013-09-30 01:04:00,52.0,52.0,29.58,West,270,1.0,5.0,100,0.00,,,0.00,Rainwise IP-100,2013-09-30 05:04:00,
2013-09-30 01:05:00,52.0,52.0,29.58,West,270,1.0,5.0,100,0.00,,,0.00,Rainwise IP-100,2013-09-30 05:05:00,
2013-09-30 01:07:00,52.0,52.0,29.58,SW,225,0.0,4.0,100,0.00,,,0.00,Rainwise IP-100,2013-09-30 05:07:00,
2013-09-30 01:08:00,52.0,52.0,29.58,West,270,3.0,4.0,100,0.00,,,0.00,Rainwise IP-100,2013-09-30 05:08:00,
2013-09-30 01:09:00,52.0,52.0,29.58,WSW,247,6.0,6.0,100,0.00,,,0.00,Rainwise IP-100,2013-09-30 05:09:00,
2013-09-30 01:10:00,52.0,52.0,29.58,West,270,3.0,8.0,100,0.00,,,0.00,Rainwise IP-100,2013-09-30 05:10:00,
2013-09-30 01:13:00,52.0,52.0,29.58,West,270,4.0,8.0,100,0.00,,,0.00,Rainwise IP-100,2013-09-30 05:13:00,
2013-09-30 01:14:00,52.0,52.0,29.58,WSW,247,4.0,8.0,100,0.00,,,0.00,Rainwise IP-100,2013-09-30 05:14:00,
2013-09-30 01:15:00,52.0,52.0,29.58,West,270,5.0,8.0,100,0.00,,,0.00,Rainwise IP-100,2013-09-30 05:15:00,
2013-09-30 01:18:00,52.0,52.0,29.58,WSW,247,4.0,6.0,100,0.00,,,0.00,Rainwise IP-100,2013-09-30 05:18:00,
2013-09-30 01:19:00,52.0,52.0,29.58,WSW,247,4.0,6.0,100,0.00,,,0.00,Rainwise IP-100,2013-09-30 05:19:00,
2013-09-30 01:20:00,52.0,52.0,29.58,West,270,4.0,5.0,100,0.00,,,0.00,Rainwise IP-100,2013-09-30 05:20:00,
2013-09-30 01:21:00,52.0,52.0,29.58,WSW,247,8.0,8.0,100,0.00,,,0.00,Rainwise IP-100,2013-09-30 05:21:00,
2013-09-30 01:23:00,52.0,52.0,29.58,West,270,7.0,9.0,100,0.00,,,0.00,Rainwise IP-100,2013-09-30 05:23:00,
2013-09-30 01:24:00,52.0,52.0,29.58,SSW,202,6.0,9.0,100,0.00,,,0.00,Rainwise IP-100,2013-09-30 05:24:00,
2013-09-30 01:25:00,52.0,52.0,29.58,SW,225,7.0,9.0,100,0.00,,,0.00,Rainwise IP-100,2013-09-30 05:25:00,
2013-09-30 01:26:00,52.0,52.0,29.58,SW,225,7.0,9.0,100,0.00,,,0.00,Rainwise IP-100,2013-09-30 05:26:00,
2013-09-30 01:29:00,52.0,52.0,29.58,SSW,202,5.0,9.0,100,0.00,,,0.00,Rainwise IP-100,2013-09-30 05:29:00,
2013-09-30 01:30:00,52.0,52.0,29.58,SSW,202,6.0,9.0,100,0.00,,,0.00,Rainwise IP-100,2013-09-30 05:30:00,
2013-09-30 01:31:00,52.0,52.0,29.58,West,270,7.0,9.0,100,0.00,,,0.00,Rainwise IP-100,2013-09-30 05:31:00,
2013-09-30 01:34:00,52.0,52.0,29.58,West,270,5.0,9.0,100,0.00,,,0.00,Rainwise IP-100,2013-09-30 05:34:00,
2013-09-30 01:35:00,52.0,52.0,29.58,North,360,4.0,9.0,100,0.00,,,0.00,Rainwise IP-100,2013-09-30 05:35:00,
2013-09-30 01:36:00,52.0,52.0,29.58,North,360,4.0,8.0,100,0.00,,,0.00,Rainwise IP-100,2013-09-30 05:36:00,
2013-09-30 01:37:00,52.0,52.0,29.58,West,270,3.0,8.0,100,0.00,,,0.00,Rainwise IP-100,2013-09-30 05:37:00,
2013-09-30 01:39:00,52.0,52.0,29.58,West,270,7.0,8.0,100,0.00,,,0.00,Rainwise IP-100,2013-09-30 05:39:00,
2013-09-30 01:40:00,52.0,52.0,29.58,WSW,247,6.0,8.0,100,0.00,,,0.00,Rainwise IP-100,2013-09-30 05:40:00,
2013-09-30 01:42:00,52.0,52.0,29.58,SW,225,4.0,8.0,100,0.00,,,0.00,Rainwise IP-100,2013-09-30 05:42:00,
2013-09-30 01:45:00,52.0,52.0,29.58,WSW,247,5.0,9.0,100,0.00,,,0.00,Rainwise IP-100,2013-09-30 05:45:00,
2013-09-30 01:47:00,52.0,52.0,29.58,West,270,3.0,9.0,100,0.00,,,0.00,Rainwise IP-100,2013-09-30 05:47:00,
2013-09-30 01:50:00,52.0,52.0,29.58,West,270,5.0,6.0,100,0.00,,,0.00,Rainwise IP-100,2013-09-30 05:50:00,
2013-09-30 01:51:00,52.0,52.0,29.58,WSW,247,4.0,6.0,100,0.00,,,0.00,Rainwise IP-100,2013-09-30 05:51:00,
2013-09-30 01:52:00,52.0,52.0,29.58,West,270,4.0,6.0,100,0.00,,,0.00,Rainwise IP-100,2013-09-30 05:52:00,
2013-09-30 01:55:00,52.0,52.0,29.58,WSW,247,4.0,6.0,100,0.00,,,0.00,Rainwise IP-100,2013-09-30 05:55:00,
2013-09-30 01:56:00,52.0,52.0,29.58,WSW,247,4.0,7.0,100,0.00,,,0.00,Rainwise IP-100,2013-09-30 05:56:00,
2013-09-30 01:57:00,52.0,52.0,29.58,SW,225,7.0,7.0,100,0.00,,,0.00,Rainwise IP-100,2013-09-30 05:57:00,
2013-09-30 02:00:00,52.0,52.0,29.57,West,270,3.0,7.0,100,0.00,,,0.00,Rainwise IP-100,2013-09-30 06:00:00,
2013-09-30 02:01:00,52.0,52.0,29.57,West,270,5.0,7.0,100,0.00,,,0.00,Rainwise IP-100,2013-09-30 06:01:00,
2013-09-30 02:02:00,52.0,52.0,29.57,West,270,4.0,7.0,100,0.00,,,0.00,Rainwise IP-100,2013-09-30 06:02:00,
2013-09-30 02:05:00,52.0,52.0,29.57,West,270,5.0,6.0,100,0.00,,,0.00,Rainwise IP-100,2013-09-30 06:05:00,
2013-09-30 02:07:00,52.0,52.0,29.57,West,270,3.0,6.0,100,0.00,,,0.00,Rainwise IP-100,2013-09-30 06:07:00,
2013-09-30 02:08:00,52.0,52.0,29.57,West,270,6.0,6.0,100,0.00,,,0.00,Rainwise IP-100,2013-09-30 06:08:00,
2013-09-30 02:11:00,52.0,52.0,29.57,West,270,4.0,6.0,100,0.00,,,0.00,Rainwise IP-100,2013-09-30 06:11:00,
2013-09-30 02:12:00,52.0,52.0,29.57,West,270,3.0,6.0,100,0.00,,,0.00,Rainwise IP-100,2013-09-30 06:12:00,
2013-09-30 02:13:00,52.0,52.0,29.57,West,270,3.0,6.0,100,0.00,,,0.00,Rainwise IP-100,2013-09-30 06:13:00,
2013-09-30 02:16:00,51.0,51.0,29.57,West,270,4.0,6.0,100,0.00,,,0.00,Rainwise IP-100,2013-09-30 06:16:00,
2013-09-30 02:17:00,51.0,51.0,29.57,SW,225,6.0,8.0,100,0.00,,,0.00,Rainwise IP-100,2013-09-30 06:17:00,
2013-09-30 02:18:00,51.0,51.0,29.57,West,270,5.0,8.0,100,0.00,,,0.00,Rainwise IP-100,2013-09-30 06:18:00,
2013-09-30 02:19:00,51.0,51.0,29.57,WSW,247,5.0,8.0,100,0.00,,,0.00,Rainwise IP-100,2013-09-30 06:19:00,
2013-09-30 02:21:00,51.0,51.0,29.57,West,270,7.0,8.0,100,0.00,,,0.00,Rainwise IP-100,2013-09-30 06:21:00,
2013-09-30 02:22:00,51.0,51.0,29.57,West,270,5.0,7.0,100,0.00,,,0.00,Rainwise IP-100,2013-09-30 06:22:00,
2013-09-30 02:23:00,51.0,51.0,29.57,West,270,5.0,7.0,100,0.00,,,0.00,Rainwise IP-100,2013-09-30 06:23:00,
2013-09-30 02:25:00,51.0,51.0,29.57,WSW,247,3.0,7.0,100,0.00,,,0.00,Rainwise IP-100,2013-09-30 06:25:00,
2013-09-30 02:26:00,51.0,51.0,29.56,North,360,0.0,7.0,100,0.00,,,0.00,Rainwise IP-100,2013-09-30 06:26:00,
2013-09-30 02:27:00,51.0,51.0,29.56,NNE,22,0.0,7.0,100,0.00,,,0.00,Rainwise IP-100,2013-09-30 06:27:00,
2013-09-30 02:28:00,51.0,51.0,29.56,NNE,22,0.0,7.0,100,0.00,,,0.00,Rainwise IP-100,2013-09-30 06:28:00,
2013-09-30 02:30:00,51.0,51.0,29.56,West,270,1.0,7.0,100,0.00,,,0.00,Rainwise IP-100,2013-09-30 06:30:00,
2013-09-30 02:31:00,51.0,51.0,29.56,SW,225,1.0,7.0,100,0.00,,,0.00,Rainwise IP-100,2013-09-30 06:31:00,
2013-09-30 02:32:00,51.0,51.0,29.56,SW,225,0.0,5.0,100,0.00,,,0.00,Rainwise IP-100,2013-09-30 06:32:00,
2013-09-30 02:33:00,51.0,51.0,29.56,SW,225,0.0,3.0,100,0.00,,,0.00,Rainwise IP-100,2013-09-30 06:33:00,
2013-09-30 02:34:00,51.0,51.0,29.56,SW,225,1.0,3.0,100,0.00,,,0.00,Rainwise IP-100,2013-09-30 06:34:00,
2013-09-30 02:37:00,50.0,50.0,29.56,NE,45,0.0,3.0,100,0.00,,,0.00,Rainwise IP-100,2013-09-30 06:37:00,
2013-09-30 02:38:00,50.0,50.0,29.56,NE,45,0.0,3.0,100,0.00,,,0.00,Rainwise IP-100,2013-09-30 06:38:00,
2013-09-30 02:39:00,50.0,50.0,29.56,NE,45,0.0,3.0,100,0.00,,,0.00,Rainwise IP-100,2013-09-30 06:39:00,
2013-09-30 02:42:00,50.0,50.0,29.56,NE,45,0.0,3.0,100,0.00,,,0.00,Rainwise IP-100,2013-09-30 06:42:00,
2013-09-30 02:43:00,50.0,50.0,29.56,NE,45,0.0,1.0,100,0.00,,,0.00,Rainwise IP-100,2013-09-30 06:43:00,
2013-09-30 02:44:00,50.0,50.0,29.56,NE,45,1.0,1.0,100,0.00,,,0.00,Rainwise IP-100,2013-09-30 06:44:00,
2013-09-30 02:45:00,50.0,50.0,29.56,NE,45,0.0,1.0,100,0.00,,,0.00,Rainwise IP-100,2013-09-30 06:45:00,
2013-09-30 02:47:00,50.0,50.0,29.56,NE,45,1.0,1.0,100,0.00,,,0.00,Rainwise IP-100,2013-09-30 06:47:00,
2013-09-30 02:48:00,50.0,50.0,29.56,NE,45,0.0,1.0,100,0.00,,,0.00,Rainwise IP-100,2013-09-30 06:48:00,
2013-09-30 02:49:00,50.0,50.0,29.56,NE,45,0.0,1.0,100,0.00,,,0.00,Rainwise IP-100,2013-09-30 06:49:00,
2013-09-30 02:50:00,50.0,50.0,29.55,West,270,0.0,1.0,100,0.00,,,0.00,Rainwise IP-100,2013-09-30 06:50:00,
2013-09-30 02:52:00,50.0,50.0,29.55,NNE,22,1.0,4.0,100,0.00,,,0.00,Rainwise IP-100,2013-09-30 06:52:00,
2013-09-30 02:53:00,50.0,50.0,29.55,West,270,2.0,4.0,100,0.00,,,0.00,Rainwise IP-100,2013-09-30 06:53:00,
2013-09-30 02:55:00,50.0,50.0,29.55,WSW,247,1.0,4.0,100,0.00,,,0.00,Rainwise IP-100,2013-09-30 06:55:00,
2013-09-30 02:57:00,50.0,50.0,29.55,WSW,247,0.0,3.0,100,0.00,,,0.00,Rainwise IP-100,2013-09-30 06:57:00,
2013-09-30 02:58:00,50.0,50.0,29.55,WSW,247,0.0,3.0,100,0.00,,,0.00,Rainwise IP-100,2013-09-30 06:58:00,
2013-09-30 03:00:00,50.0,50.0,29.55,WSW,247,0.0,3.0,100,0.00,,,0.00,Rainwise IP-100,2013-09-30 07:00:00,
2013-09-30 03:01:00,50.0,50.0,29.55,WSW,247,0.0,0.0,100,0.00,,,0.00,Rainwise IP-100,2013-09-30 07:01:00,
2013-09-30 03:02:00,50.0,50.0,29.55,WSW,247,0.0,0.0,100,0.00,,,0.00,Rainwise IP-100,2013-09-30 07:02:00,
2013-09-30 03:03:00,50.0,50.0,29.55,WSW,247,0.0,0.0,100,0.00,,,0.00,Rainwise IP-100,2013-09-30 07:03:00,
2013-09-30 03:05:00,50.0,50.0,29.55,WSW,247,0.0,0.0,100,0.00,,,0.00,Rainwise IP-100,2013-09-30 07:05:00,
2013-09-30 03:06:00,50.0,50.0,29.55,WSW,247,0.0,0.0,100,0.00,,,0.00,Rainwise IP-100,2013-09-30 07:06:00,
2013-09-30 03:07:00,50.0,50.0,29.55,WSW,247,0.0,0.0,100,0.00,,,0.00,Rainwise IP-100,2013-09-30 07:07:00,
2013-09-30 03:08:00,50.0,50.0,29.55,WSW,247,0.0,0.0,100,0.00,,,0.00,Rainwise IP-100,2013-09-30 07:08:00,
2013-09-30 03:10:00,50.0,50.0,29.55,ENE,67,1.0,2.0,100,0.00,,,0.00,Rainwise IP-100,2013-09-30 07:10:00,
2013-09-30 03:12:00,50.0,50.0,29.55,ENE,67,3.0,3.0,100,0.00,,,0.00,Rainwise IP-100,2013-09-30 07:12:00,
2013-09-30 03:13:00,50.0,50.0,29.55,NNE,22,3.0,4.0,100,0.00,,,0.00,Rainwise IP-100,2013-09-30 07:13:00,
2013-09-30 03:14:00,50.0,50.0,29.55,East,90,2.0,4.0,100,0.00,,,0.00,Rainwise IP-100,2013-09-30 07:14:00,
2013-09-30 03:15:00,50.0,50.0,29.55,NNE,22,3.0,4.0,100,0.00,,,0.00,Rainwise IP-100,2013-09-30 07:15:00,
2013-09-30 03:17:00,50.0,50.0,29.55,NNE,22,3.0,4.0,100,0.00,,,0.00,Rainwise IP-100,2013-09-30 07:17:00,
2013-09-30 03:18:00,50.0,50.0,29.55,ENE,67,3.0,4.0,100,0.00,,,0.00,Rainwise IP-100,2013-09-30 07:18:00,
2013-09-30 03:19:00,50.0,50.0,29.55,NNE,22,3.0,4.0,100,0.00,,,0.00,Rainwise IP-100,2013-09-30 07:19:00,
2013-09-30 03:20:00,50.0,50.0,29.55,NNE,22,3.0,4.0,100,0.00,,,0.00,Rainwise IP-100,2013-09-30 07:20:00,
2013-09-30 03:22:00,49.0,49.0,29.55,WSW,247,2.0,4.0,100,0.00,,,0.00,Rainwise IP-100,2013-09-30 07:22:00,
2013-09-30 03:23:00,49.0,49.0,29.55,WSW,247,3.0,5.0,100,0.00,,,0.00,Rainwise IP-100,2013-09-30 07:23:00,
2013-09-30 03:24:00,49.0,49.0,29.55,WSW,247,6.0,6.0,100,0.00,,,0.00,Rainwise IP-100,2013-09-30 07:24:00,
2013-09-30 03:25:00,49.0,49.0,29.55,West,270,4.0,6.0,100,0.00,,,0.00,Rainwise IP-100,2013-09-30 07:25:00,
2013-09-30 03:28:00,49.0,49.0,29.55,SW,225,4.0,6.0,100,0.00,,,0.00,Rainwise IP-100,2013-09-30 07:28:00,
2013-09-30 03:29:00,49.0,49.0,29.55,SW,225,4.0,6.0,100,0.00,,,0.00,Rainwise IP-100,2013-09-30 07:29:00,
2013-09-30 03:30:00,49.0,49.0,29.55,SW,225,4.0,6.0,100,0.00,,,0.00,Rainwise IP-100,2013-09-30 07:30:00,
2013-09-30 03:31:00,49.0,49.0,29.56,NE,45,1.0,6.0,99,0.00,,,0.00,Rainwise IP-100,2013-09-30 07:31:00,
2013-09-30 03:33:00,49.0,49.0,29.56,West,270,0.0,6.0,99,0.00,,,0.00,Rainwise IP-100,2013-09-30 07:33:00,
2013-09-30 03:34:00,49.0,49.0,29.56,West,270,0.0,6.0,99,0.00,,,0.00,Rainwise IP-100,2013-09-30 07:34:00,
2013-09-30 03:35:00,49.0,49.0,29.56,West,270,2.0,6.0,99,0.00,,,0.00,Rainwise IP-100,2013-09-30 07:35:00,
2013-09-30 03:36:00,49.0,49.0,29.56,West,270,3.0,3.0,99,0.00,,,0.00,Rainwise IP-100,2013-09-30 07:36:00,
2013-09-30 03:38:00,49.0,49.0,29.56,West,270,3.0,5.0,99,0.00,,,0.00,Rainwise IP-100,2013-09-30 07:38:00,
2013-09-30 03:39:00,49.0,49.0,29.56,West,270,3.0,5.0,99,0.00,,,0.00,Rainwise IP-100,2013-09-30 07:39:00,
2013-09-30 03:40:00,49.0,49.0,29.56,West,270,5.0,5.0,99,0.00,,,0.00,Rainwise IP-100,2013-09-30 07:40:00,
2013-09-30 03:41:00,49.0,49.0,29.56,West,270,3.0,5.0,99,0.00,,,0.00,Rainwise IP-100,2013-09-30 07:41:00,
2013-09-30 03:43:00,49.0,49.0,29.56,West,270,3.0,5.0,99,0.00,,,0.00,Rainwise IP-100,2013-09-30 07:43:00,
2013-09-30 03:44:00,49.0,49.0,29.56,West,270,3.0,5.0,99,0.00,,,0.00,Rainwise IP-100,2013-09-30 07:44:00,
2013-09-30 03:45:00,49.0,49.0,29.56,West,270,3.0,5.0,99,0.00,,,0.00,Rainwise IP-100,2013-09-30 07:45:00,
2013-09-30 03:46:00,49.0,49.0,29.56,West,270,3.0,5.0,99,0.00,,,0.00,Rainwise IP-100,2013-09-30 07:46:00,
2013-09-30 03:48:00,49.0,49.0,29.56,West,270,3.0,5.0,99,0.00,,,0.00,Rainwise IP-100,2013-09-30 07:48:00,
2013-09-30 03:49:00,49.0,49.0,29.56,West,270,3.0,5.0,99,0.00,,,0.00,Rainwise IP-100,2013-09-30 07:49:00,
2013-09-30 03:50:00,49.0,49.0,29.56,West,270,2.0,5.0,99,0.00,,,0.00,Rainwise IP-100,2013-09-30 07:50:00,
2013-09-30 03:51:00,49.0,49.0,29.56,West,270,2.0,5.0,99,0.00,,,0.00,Rainwise IP-100,2013-09-30 07:51:00,
2013-09-30 03:54:00,49.0,49.0,29.56,West,270,2.0,5.0,99,0.00,,,0.00,Rainwise IP-100,2013-09-30 07:54:00,
2013-09-30 03:55:00,49.0,49.0,29.56,West,270,3.0,5.0,99,0.00,,,0.00,Rainwise IP-100,2013-09-30 07:55:00,
2013-09-30 03:56:00,49.0,49.0,29.56,West,270,5.0,5.0,99,0.00,,,0.00,Rainwise IP-100,2013-09-30 07:56:00,
2013-09-30 03:59:00,49.0,49.0,29.56,West,270,2.0,5.0,99,0.00,,,0.00,Rainwise IP-100,2013-09-30 07:59:00,
2013-09-30 04:01:00,49.0,49.0,29.56,West,270,3.0,5.0,99,0.00,,,0.00,Rainwise IP-100,2013-09-30 08:01:00,
2013-09-30 04:02:00,49.0,49.0,29.56,West,270,3.0,5.0,99,0.00,,,0.00,Rainwise IP-100,2013-09-30 08:02:00,
2013-09-30 04:04:00,49.0,49.0,29.56,West,270,2.0,5.0,99,0.00,,,0.00,Rainwise IP-100,2013-09-30 08:04:00,
2013-09-30 04:05:00,49.0,49.0,29.56,West,270,3.0,5.0,99,0.00,,,0.00,Rainwise IP-100,2013-09-30 08:05:00,
2013-09-30 04:06:00,49.0,49.0,29.56,West,270,3.0,5.0,99,0.00,,,0.00,Rainwise IP-100,2013-09-30 08:06:00,
2013-09-30 04:07:00,49.0,49.0,29.56,West,270,2.0,5.0,99,0.00,,,0.00,Rainwise IP-100,2013-09-30 08:07:00,
2013-09-30 04:10:00,49.0,49.0,29.56,West,270,3.0,5.0,99,0.00,,,0.00,Rainwise IP-100,2013-09-30 08:10:00,
2013-09-30 04:11:00,49.0,49.0,29.56,West,270,5.0,5.0,99,0.00,,,0.00,Rainwise IP-100,2013-09-30 08:11:00,
2013-09-30 04:13:00,49.0,49.0,29.56,West,270,2.0,5.0,99,0.00,,,0.00,Rainwise IP-100,2013-09-30 08:13:00,
2013-09-30 04:15:00,49.0,49.0,29.56,West,270,2.0,5.0,99,0.00,,,0.00,Rainwise IP-100,2013-09-30 08:15:00,
2013-09-30 04:16:00,49.0,49.0,29.56,West,270,3.0,5.0,99,0.00,,,0.00,Rainwise IP-100,2013-09-30 08:16:00,
2013-09-30 04:17:00,49.0,49.0,29.56,West,270,5.0,5.0,99,0.00,,,0.00,Rainwise IP-100,2013-09-30 08:17:00,
2013-09-30 04:18:00,49.0,49.0,29.56,West,270,2.0,5.0,99,0.00,,,0.00,Rainwise IP-100,2013-09-30 08:18:00,
2013-09-30 04:20:00,49.0,49.0,29.56,West,270,3.0,5.0,99,0.00,,,0.00,Rainwise IP-100,2013-09-30 08:20:00,
2013-09-30 04:22:00,49.0,49.0,29.56,West,270,3.0,5.0,99,0.00,,,0.00,Rainwise IP-100,2013-09-30 08:22:00,
2013-09-30 04:23:00,49.0,49.0,29.56,West,270,2.0,5.0,99,0.00,,,0.00,Rainwise IP-100,2013-09-30 08:23:00,
2013-09-30 04:25:00,49.0,49.0,29.56,West,270,4.0,5.0,99,0.00,,,0.00,Rainwise IP-100,2013-09-30 08:25:00,
2013-09-30 04:27:00,49.0,49.0,29.56,West,270,2.0,5.0,99,0.00,,,0.00,Rainwise IP-100,2013-09-30 08:27:00,
2013-09-30 04:28:00,49.0,49.0,29.56,West,270,4.0,5.0,99,0.00,,,0.00,Rainwise IP-100,2013-09-30 08:28:00,
2013-09-30 04:31:00,49.0,49.0,29.56,West,270,3.0,5.0,99,0.00,,,0.00,Rainwise IP-100,2013-09-30 08:31:00,
2013-09-30 04:32:00,49.0,49.0,29.56,West,270,2.0,5.0,99,0.00,,,0.00,Rainwise IP-100,2013-09-30 08:32:00,
2013-09-30 04:33:00,49.0,49.0,29.56,West,270,3.0,5.0,99,0.00,,,0.00,Rainwise IP-100,2013-09-30 08:33:00,
2013-09-30 04:36:00,49.0,49.0,29.56,West,270,2.0,5.0,99,0.00,,,0.00,Rainwise IP-100,2013-09-30 08:36:00,
2013-09-30 04:37:00,49.0,49.0,29.56,West,270,3.0,5.0,99,0.00,,,0.00,Rainwise IP-100,2013-09-30 08:37:00,
2013-09-30 04:38:00,49.0,49.0,29.56,West,270,3.0,5.0,99,0.00,,,0.00,Rainwise IP-100,2013-09-30 08:38:00,
2013-09-30 04:39:00,49.0,49.0,29.56,West,270,3.0,5.0,99,0.00,,,0.00,Rainwise IP-100,2013-09-30 08:39:00,
2013-09-30 04:42:00,49.0,49.0,29.56,West,270,2.0,5.0,99,0.00,,,0.00,Rainwise IP-100,2013-09-30 08:42:00,
2013-09-30 04:43:00,49.0,49.0,29.56,West,270,4.0,5.0,99,0.00,,,0.00,Rainwise IP-100,2013-09-30 08:43:00,
2013-09-30 04:44:00,49.0,49.0,29.56,West,270,4.0,5.0,99,0.00,,,0.00,Rainwise IP-100,2013-09-30 08:44:00,
2013-09-30 04:47:00,49.0,49.0,29.56,West,270,2.0,5.0,99,0.00,,,0.00,Rainwise IP-100,2013-09-30 08:47:00,
2013-09-30 04:48:00,49.0,49.0,29.56,West,270,5.0,5.0,99,0.00,,,0.00,Rainwise IP-100,2013-09-30 08:48:00,
2013-09-30 04:49:00,49.0,49.0,29.56,West,270,4.0,5.0,99,0.00,,,0.00,Rainwise IP-100,2013-09-30 08:49:00,
2013-09-30 04:53:00,49.0,49.0,29.56,West,270,3.0,5.0,99,0.00,,,0.00,Rainwise IP-100,2013-09-30 08:53:00,
2013-09-30 04:54:00,49.0,49.0,29.56,West,270,2.0,5.0,99,0.00,,,0.00,Rainwise IP-100,2013-09-30 08:54:00,
2013-09-30 04:58:00,49.0,49.0,29.56,West,270,2.0,5.0,99,0.00,,,0.00,Rainwise IP-100,2013-09-30 08:58:00,
2013-09-30 04:59:00,49.0,49.0,29.56,West,270,4.0,5.0,99,0.00,,,0.00,Rainwise IP-100,2013-09-30 08:59:00,
2013-09-30 05:03:00,49.0,49.0,29.56,West,270,2.0,5.0,99,0.00,,,0.00,Rainwise IP-100,2013-09-30 09:03:00,
2013-09-30 05:04:00,49.0,49.0,29.56,West,270,3.0,5.0,99,0.00,,,0.00,Rainwise IP-100,2013-09-30 09:04:00,
2013-09-30 05:05:00,49.0,49.0,29.56,West,270,2.0,5.0,99,0.00,,,0.00,Rainwise IP-100,2013-09-30 09:05:00,
2013-09-30 05:08:00,49.0,49.0,29.56,West,270,4.0,5.0,99,0.00,,,0.00,Rainwise IP-100,2013-09-30 09:08:00,
2013-09-30 05:09:00,49.0,49.0,29.56,West,270,3.0,5.0,99,0.00,,,0.00,Rainwise IP-100,2013-09-30 09:09:00,
2013-09-30 05:12:00,49.0,49.0,29.56,West,270,2.0,5.0,99,0.00,,,0.00,Rainwise IP-100,2013-09-30 09:12:00,
2013-09-30 05:13:00,49.0,49.0,29.56,West,270,3.0,5.0,99,0.00,,,0.00,Rainwise IP-100,2013-09-30 09:13:00,
2013-09-30 05:14:00,49.0,49.0,29.56,West,270,3.0,5.0,99,0.00,,,0.00,Rainwise IP-100,2013-09-30 09:14:00,
2013-09-30 05:15:00,49.0,49.0,29.56,West,270,3.0,5.0,99,0.00,,,0.00,Rainwise IP-100,2013-09-30 09:15:00,
2013-09-30 05:18:00,44.0,44.0,29.53,North,360,0.0,5.0,99,0.00,,,0.00,Rainwise IP-100,2013-09-30 09:18:00,
2013-09-30 05:19:00,44.0,44.0,29.53,North,360,0.0,5.0,99,0.00,,,0.00,Rainwise IP-100,2013-09-30 09:19:00,
2013-09-30 05:20:00,44.0,44.0,29.53,North,360,0.0,5.0,99,0.00,,,0.00,Rainwise IP-100,2013-09-30 09:20:00,
2013-09-30 05:24:00,44.0,44.0,29.53,North,360,0.0,0.0,99,0.00,,,0.00,Rainwise IP-100,2013-09-30 09:24:00,
2013-09-30 05:25:00,44.0,44.0,29.53,North,360,0.0,0.0,99,0.00,,,0.00,Rainwise IP-100,2013-09-30 09:25:00,
2013-09-30 05:26:00,44.0,44.0,29.53,North,360,0.0,0.0,99,0.00,,,0.00,Rainwise IP-100,2013-09-30 09:26:00,
2013-09-30 05:29:00,44.0,44.0,29.53,North,360,0.0,0.0,99,0.00,,,0.00,Rainwise IP-100,2013-09-30 09:29:00,
2013-09-30 05:31:00,43.0,43.0,29.53,North,360,0.0,0.0,100,0.00,,,0.00,Rainwise IP-100,2013-09-30 09:31:00,
2013-09-30 05:34:00,43.0,43.0,29.53,North,360,0.0,0.0,100,0.00,,,0.00,Rainwise IP-100,2013-09-30 09:34:00,
2013-09-30 05:35:00,43.0,43.0,29.53,North,360,0.0,0.0,100,0.00,,,0.00,Rainwise IP-100,2013-09-30 09:35:00,
2013-09-30 05:36:00,43.0,43.0,29.53,North,360,0.0,0.0,100,0.00,,,0.00,Rainwise IP-100,2013-09-30 09:36:00,
2013-09-30 05:37:00,43.0,43.0,29.53,North,360,0.0,0.0,100,0.00,,,0.00,Rainwise IP-100,2013-09-30 09:37:00,
2013-09-30 05:39:00,43.0,43.0,29.53,North,360,0.0,0.0,100,0.00,,,0.00,Rainwise IP-100,2013-09-30 09:39:00,
2013-09-30 05:40:00,43.0,43.0,29.53,North,360,0.0,0.0,100,0.00,,,0.00,Rainwise IP-100,2013-09-30 09:40:00,
2013-09-30 05:41:00,43.0,43.0,29.53,North,360,0.0,0.0,100,0.00,,,0.00,Rainwise IP-100,2013-09-30 09:41:00,
2013-09-30 05:42:00,43.0,43.0,29.53,North,360,0.0,0.0,100,0.00,,,0.00,Rainwise IP-100,2013-09-30 09:42:00,
2013-09-30 05:45:00,43.0,43.0,29.53,North,360,0.0,0.0,100,0.00,,,0.00,Rainwise IP-100,2013-09-30 09:45:00,
2013-09-30 05:46:00,43.0,43.0,29.53,North,360,0.0,0.0,100,0.00,,,0.00,Rainwise IP-100,2013-09-30 09:46:00,
2013-09-30 05:48:00,43.0,43.0,29.53,North,360,0.0,0.0,100,0.00,,,0.00,Rainwise IP-100,2013-09-30 09:48:00,
2013-09-30 05:50:00,43.0,43.0,29.53,North,360,0.0,0.0,100,0.00,,,0.00,Rainwise IP-100,2013-09-30 09:50:00,
2013-09-30 05:51:00,43.0,43.0,29.53,North,360,0.0,0.0,100,0.00,,,0.00,Rainwise IP-100,2013-09-30 09:51:00,
2013-09-30 05:52:00,43.0,43.0,29.53,North,360,0.0,0.0,100,0.00,,,0.00,Rainwise IP-100,2013-09-30 09:52:00,
2013-09-30 05:53:00,42.0,42.0,29.53,North,360,0.0,0.0,100,0.00,,,0.00,Rainwise IP-100,2013-09-30 09:53:00,
2013-09-30 05:55:00,42.0,42.0,29.53,North,360,0.0,0.0,100,0.00,,,0.00,Rainwise IP-100,2013-09-30 09:55:00,
2013-09-30 05:56:00,42.0,42.0,29.53,North,360,0.0,0.0,100,0.00,,,0.00,Rainwise IP-100,2013-09-30 09:56:00,
2013-09-30 05:57:00,42.0,42.0,29.53,North,360,0.0,0.0,100,0.00,,,0.00,Rainwise IP-100,2013-09-30 09:57:00,
2013-09-30 05:59:00,42.0,42.0,29.53,North,360,0.0,0.0,100,0.00,,,0.00,Rainwise IP-100,2013-09-30 09:59:00,
2013-09-30 06:00:00,42.0,42.0,29.53,North,360,0.0,0.0,100,0.00,,,0.00,Rainwise IP-100,2013-09-30 10:00:00,
2013-09-30 06:01:00,42.0,42.0,29.53,North,360,0.0,0.0,100,0.00,,,0.00,Rainwise IP-100,2013-09-30 10:01:00,
2013-09-30 06:02:00,42.0,42.0,29.53,North,360,0.0,0.0,100,0.00,,,0.00,Rainwise IP-100,2013-09-30 10:02:00,
2013-09-30 06:04:00,42.0,42.0,29.53,North,360,0.0,0.0,100,0.00,,,0.00,Rainwise IP-100,2013-09-30 10:04:00,
2013-09-30 06:05:00,42.0,42.0,29.53,North,360,0.0,0.0,100,0.00,,,0.00,Rainwise IP-100,2013-09-30 10:05:00,
2013-09-30 06:06:00,42.0,42.0,29.53,North,360,0.0,0.0,100,0.00,,,0.00,Rainwise IP-100,2013-09-30 10:06:00,
2013-09-30 06:07:00,42.0,42.0,29.53,North,360,0.0,0.0,100,0.00,,,0.00,Rainwise IP-100,2013-09-30 10:07:00,
2013-09-30 06:09:00,42.0,42.0,29.53,North,360,0.0,0.0,100,0.00,,,0.00,Rainwise IP-100,2013-09-30 10:09:00,
2013-09-30 06:10:00,42.0,42.0,29.53,North,360,0.0,0.0,100,0.00,,,0.00,Rainwise IP-100,2013-09-30 10:10:00,
2013-09-30 06:11:00,42.0,42.0,29.53,North,360,0.0,0.0,100,0.00,,,0.00,Rainwise IP-100,2013-09-30 10:11:00,
2013-09-30 06:12:00,42.0,42.0,29.53,North,360,0.0,0.0,100,0.00,,,0.00,Rainwise IP-100,2013-09-30 10:12:00,
2013-09-30 06:15:00,42.0,42.0,29.53,North,360,0.0,0.0,100,0.00,,,0.00,Rainwise IP-100,2013-09-30 10:15:00,
2013-09-30 06:17:00,42.0,42.0,29.53,North,360,0.0,0.0,100,0.00,,,0.00,Rainwise IP-100,2013-09-30 10:17:00,
2013-09-30 06:18:00,42.0,42.0,29.53,North,360,0.0,0.0,100,0.00,,,0.00,Rainwise IP-100,2013-09-30 10:18:00,
2013-09-30 06:20:00,42.0,42.0,29.53,North,360,0.0,0.0,100,0.00,,,0.00,Rainwise IP-100,2013-09-30 10:20:00,
2013-09-30 06:21:00,42.0,42.0,29.53,North,360,0.0,0.0,100,0.00,,,0.00,Rainwise IP-100,2013-09-30 10:21:00,
2013-09-30 06:22:00,42.0,42.0,29.53,North,360,0.0,0.0,100,0.00,,,0.00,Rainwise IP-100,2013-09-30 10:22:00,
2013-09-30 06:23:00,42.0,42.0,29.53,North,360,0.0,0.0,100,0.00,,,0.00,Rainwise IP-100,2013-09-30 10:23:00,
2013-09-30 06:25:00,40.0,40.0,29.51,North,360,0.0,0.0,100,0.00,,,0.00,Rainwise IP-100,2013-09-30 10:25:00,
2013-09-30 06:27:00,40.0,40.0,29.51,North,360,0.0,0.0,100,0.00,,,0.00,Rainwise IP-100,2013-09-30 10:27:00,
2013-09-30 06:28:00,40.0,40.0,29.51,North,360,0.0,0.0,100,0.00,,,0.00,Rainwise IP-100,2013-09-30 10:28:00,
2013-09-30 06:30:00,40.0,40.0,29.51,North,360,0.0,0.0,100,0.00,,,0.00,Rainwise IP-100,2013-09-30 10:30:00,
2013-09-30 06:32:00,40.0,40.0,29.51,North,360,0.0,0.0,100,0.00,,,0.00,Rainwise IP-100,2013-09-30 10:32:00,
2013-09-30 06:33:00,40.0,40.0,29.51,North,360,0.0,0.0,100,0.00,,,0.00,Rainwise IP-100,2013-09-30 10:33:00,
2013-09-30 06:35:00,40.0,40.0,29.51,North,360,0.0,0.0,100,0.00,,,0.00,Rainwise IP-100,2013-09-30 10:35:00,
2013-09-30 06:38:00,40.0,40.0,29.51,North,360,0.0,0.0,100,0.00,,,0.00,Rainwise IP-100,2013-09-30 10:38:00,
2013-09-30 06:39:00,40.0,40.0,29.51,North,360,0.0,0.0,100,0.00,,,0.00,Rainwise IP-100,2013-09-30 10:39:00,
2013-09-30 06:41:00,40.0,40.0,29.51,North,360,0.0,0.0,100,0.00,,,0.00,Rainwise IP-100,2013-09-30 10:41:00,
2013-09-30 06:43:00,40.0,40.0,29.51,North,360,0.0,0.0,100,0.00,,,0.00,Rainwise IP-100,2013-09-30 10:43:00,
2013-09-30 06:44:00,40.0,40.0,29.51,North,360,0.0,0.0,100,0.00,,,0.00,Rainwise IP-100,2013-09-30 10:44:00,
2013-09-30 06:45:00,40.0,40.0,29.51,North,360,0.0,0.0,100,0.00,,,0.00,Rainwise IP-100,2013-09-30 10:45:00,
2013-09-30 06:46:00,40.0,40.0,29.51,North,360,0.0,0.0,100,0.00,,,0.00,Rainwise IP-100,2013-09-30 10:46:00,
2013-09-30 06:48:00,40.0,40.0,29.51,North,360,0.0,0.0,100,0.00,,,0.00,Rainwise IP-100,2013-09-30 10:48:00,
2013-09-30 06:49:00,40.0,40.0,29.51,North,360,0.0,0.0,100,0.00,,,0.00,Rainwise IP-100,2013-09-30 10:49:00,
2013-09-30 06:50:00,39.0,39.0,29.52,North,360,0.0,0.0,100,0.00,,,0.00,Rainwise IP-100,2013-09-30 10:50:00,
2013-09-30 06:51:00,39.0,39.0,29.52,North,360,0.0,0.0,100,0.00,,,0.00,Rainwise IP-100,2013-09-30 10:51:00,
2013-09-30 06:54:00,39.0,39.0,29.52,North,360,0.0,0.0,100,0.00,,,0.00,Rainwise IP-100,2013-09-30 10:54:00,
2013-09-30 06:55:00,40.0,40.0,29.52,North,360,0.0,0.0,100,0.00,,,0.00,Rainwise IP-100,2013-09-30 10:55:00,
2013-09-30 06:57:00,40.0,40.0,29.52,North,360,0.0,0.0,100,0.00,,,0.00,Rainwise IP-100,2013-09-30 10:57:00,
2013-09-30 06:59:00,40.0,40.0,29.52,North,360,0.0,0.0,100,0.00,,,0.00,Rainwise IP-100,2013-09-30 10:59:00,
2013-09-30 07:00:00,40.0,40.0,29.52,North,360,0.0,0.0,100,0.00,,,0.00,Rainwise IP-100,2013-09-30 11:00:00,
2013-09-30 07:02:00,40.0,40.0,29.52,North,360,0.0,0.0,100,0.00,,,0.00,Rainwise IP-100,2013-09-30 11:02:00,
2013-09-30 07:04:00,40.0,40.0,29.52,North,360,0.0,0.0,100,0.00,,,0.00,Rainwise IP-100,2013-09-30 11:04:00,
2013-09-30 07:05:00,40.0,40.0,29.52,North,360,0.0,0.0,100,0.00,,,0.00,Rainwise IP-100,2013-09-30 11:05:00,
2013-09-30 07:06:00,40.0,40.0,29.53,North,360,1.0,1.0,100,0.00,,,0.00,Rainwise IP-100,2013-09-30 11:06:00,
2013-09-30 07:07:00,40.0,40.0,29.53,North,360,0.0,1.0,100,0.00,,,0.00,Rainwise IP-100,2013-09-30 11:07:00,
2013-09-30 07:09:00,40.0,40.0,29.53,North,360,1.0,1.0,100,0.00,,,0.00,Rainwise IP-100,2013-09-30 11:09:00,
2013-09-30 07:10:00,40.0,40.0,29.53,North,360,0.0,1.0,100,0.00,,,0.00,Rainwise IP-100,2013-09-30 11:10:00,
2013-09-30 07:12:00,40.0,40.0,29.53,North,360,1.0,1.0,100,0.00,,,0.00,Rainwise IP-100,2013-09-30 11:12:00,
2013-09-30 07:15:00,40.0,40.0,29.53,North,360,0.0,1.0,100,0.00,,,0.00,Rainwise IP-100,2013-09-30 11:15:00,
2013-09-30 07:17:00,40.0,40.0,29.53,North,360,0.0,1.0,100,0.00,,,0.00,Rainwise IP-100,2013-09-30 11:17:00,
2013-09-30 07:20:00,40.0,40.0,29.53,North,360,0.0,1.0,100,0.00,,,0.00,Rainwise IP-100,2013-09-30 11:20:00,
2013-09-30 07:21:00,40.0,40.0,29.53,North,360,0.0,1.0,100,0.00,,,0.00,Rainwise IP-100,2013-09-30 11:21:00,
2013-09-30 07:22:00,40.0,40.0,29.53,North,360,1.0,1.0,100,0.00,,,0.00,Rainwise IP-100,2013-09-30 11:22:00,
2013-09-30 07:23:00,40.0,40.0,29.53,North,360,0.0,1.0,100,0.00,,,0.00,Rainwise IP-100,2013-09-30 11:23:00,
2013-09-30 07:25:00,40.0,40.0,29.53,North,360,1.0,1.0,100,0.00,,,0.00,Rainwise IP-100,2013-09-30 11:25:00,
2013-09-30 07:26:00,40.0,40.0,29.53,North,360,0.0,1.0,100,0.00,,,0.00,Rainwise IP-100,2013-09-30 11:26:00,
2013-09-30 07:27:00,40.0,40.0,29.53,North,360,1.0,1.0,100,0.00,,,0.00,Rainwise IP-100,2013-09-30 11:27:00,
2013-09-30 07:28:00,40.0,40.0,29.53,North,360,0.0,1.0,100,0.00,,,0.00,Rainwise IP-100,2013-09-30 11:28:00,
2013-09-30 07:30:00,40.0,40.0,29.53,North,360,1.0,1.0,100,0.00,,,0.00,Rainwise IP-100,2013-09-30 11:30:00,
2013-09-30 07:31:00,40.0,40.0,29.53,North,360,1.0,1.0,100,0.00,,,0.00,Rainwise IP-100,2013-09-30 11:31:00,
2013-09-30 07:32:00,40.0,40.0,29.53,North,360,1.0,1.0,100,0.00,,,0.00,Rainwise IP-100,2013-09-30 11:32:00,
2013-09-30 07:33:00,40.0,40.0,29.53,North,360,0.0,1.0,100,0.00,,,0.00,Rainwise IP-100,2013-09-30 11:33:00,
2013-09-30 07:35:00,40.0,40.0,29.53,North,360,1.0,1.0,100,0.00,,,0.00,Rainwise IP-100,2013-09-30 11:35:00,
2013-09-30 07:36:00,40.0,40.0,29.53,North,360,1.0,1.0,100,0.00,,,0.00,Rainwise IP-100,2013-09-30 11:36:00,
2013-09-30 07:37:00,40.0,40.0,29.53,North,360,0.0,1.0,100,0.00,,,0.00,Rainwise IP-100,2013-09-30 11:37:00,
2013-09-30 07:39:00,40.0,40.0,29.53,North,360,0.0,1.0,100,0.00,,,0.00,Rainwise IP-100,2013-09-30 11:39:00,
2013-09-30 07:40:00,40.0,40.0,29.53,North,360,0.0,1.0,100,0.00,,,0.00,Rainwise IP-100,2013-09-30 11:40:00,
2013-09-30 07:41:00,40.0,40.0,29.53,North,360,1.0,1.0,100,0.00,,,0.00,Rainwise IP-100,2013-09-30 11:41:00,
2013-09-30 07:43:00,40.0,40.0,29.53,North,360,0.0,1.0,100,0.00,,,0.00,Rainwise IP-100,2013-09-30 11:43:00,
2013-09-30 07:45:00,40.0,40.0,29.53,North,360,0.0,1.0,100,0.00,,,0.00,Rainwise IP-100,2013-09-30 11:45:00,
2013-09-30 07:46:00,40.0,40.0,29.53,North,360,1.0,1.0,100,0.00,,,0.00,Rainwise IP-100,2013-09-30 11:46:00,
2013-09-30 07:48:00,40.0,40.0,29.53,North,360,0.0,1.0,100,0.00,,,0.00,Rainwise IP-100,2013-09-30 11:48:00,
2013-09-30 07:50:00,40.0,40.0,29.53,North,360,0.0,1.0,100,0.00,,,0.00,Rainwise IP-100,2013-09-30 11:50:00,
2013-09-30 07:52:00,40.0,40.0,29.53,North,360,0.0,1.0,100,0.00,,,0.00,Rainwise IP-100,2013-09-30 11:52:00,
2013-09-30 07:53:00,40.0,40.0,29.53,North,360,1.0,1.0,100,0.00,,,0.00,Rainwise IP-100,2013-09-30 11:53:00,
2013-09-30 07:55:00,40.0,40.0,29.53,North,360,0.0,1.0,100,0.00,,,0.00,Rainwise IP-100,2013-09-30 11:55:00,
2013-09-30 07:56:00,40.0,40.0,29.53,North,360,0.0,1.0,100,0.00,,,0.00,Rainwise IP-100,2013-09-30 11:56:00,
2013-09-30 07:57:00,40.0,40.0,29.53,North,360,0.0,1.0,100,0.00,,,0.00,Rainwise IP-100,2013-09-30 11:57:00,
2013-09-30 07:59:00,40.0,40.0,29.53,North,360,0.0,1.0,100,0.00,,,0.00,Rainwise IP-100,2013-09-30 11:59:00,
2013-09-30 08:01:00,50.0,50.0,29.56,West,270,0.0,1.0,99,0.00,,,0.00,Rainwise IP-100,2013-09-30 12:01:00,
2013-09-30 08:02:00,50.0,50.0,29.56,West,270,0.0,1.0,99,0.00,,,0.00,Rainwise IP-100,2013-09-30 12:02:00,
2013-09-30 08:04:00,50.0,50.0,29.56,West,270,0.0,1.0,99,0.00,,,0.00,Rainwise IP-100,2013-09-30 12:04:00,
2013-09-30 08:06:00,51.0,50.0,29.56,West,270,0.0,2.0,97,0.00,,,0.00,Rainwise IP-100,2013-09-30 12:06:00,
2013-09-30 08:07:00,51.0,50.0,29.56,West,270,0.0,2.0,97,0.00,,,0.00,Rainwise IP-100,2013-09-30 12:07:00,
2013-09-30 08:08:00,51.0,50.0,29.56,West,270,0.0,2.0,97,0.00,,,0.00,Rainwise IP-100,2013-09-30 12:08:00,
2013-09-30 08:09:00,51.0,50.0,29.56,West,270,0.0,2.0,97,0.00,,,0.00,Rainwise IP-100,2013-09-30 12:09:00,
2013-09-30 08:11:00,51.0,50.0,29.56,West,270,0.0,2.0,97,0.00,,,0.00,Rainwise IP-100,2013-09-30 12:11:00,
2013-09-30 08:13:00,52.0,50.0,29.57,West,270,1.0,1.0,94,0.00,,,0.00,Rainwise IP-100,2013-09-30 12:13:00,
2013-09-30 08:14:00,52.0,50.0,29.57,West,270,1.0,3.0,94,0.00,,,0.00,Rainwise IP-100,2013-09-30 12:14:00,
2013-09-30 08:16:00,52.0,50.0,29.57,West,270,2.0,3.0,93,0.00,,,0.00,Rainwise IP-100,2013-09-30 12:16:00,
2013-09-30 08:17:00,53.0,50.0,29.57,West,270,3.0,3.0,93,0.00,,,0.00,Rainwise IP-100,2013-09-30 12:17:00,
2013-09-30 08:18:00,53.0,50.0,29.57,West,270,1.0,3.0,92,0.00,,,0.00,Rainwise IP-100,2013-09-30 12:18:00,
2013-09-30 08:19:00,53.0,50.0,29.57,West,270,1.0,3.0,92,0.00,,,0.00,Rainwise IP-100,2013-09-30 12:19:00,
2013-09-30 08:21:00,53.0,50.0,29.58,West,270,2.0,3.0,92,0.00,,,0.00,Rainwise IP-100,2013-09-30 12:21:00,
2013-09-30 08:22:00,53.0,50.0,29.58,West,270,1.0,3.0,92,0.00,,,0.00,Rainwise IP-100,2013-09-30 12:22:00,
2013-09-30 08:23:00,53.0,50.0,29.58,West,270,1.0,2.0,92,0.00,,,0.00,Rainwise IP-100,2013-09-30 12:23:00,
2013-09-30 08:24:00,53.0,50.0,29.58,West,270,1.0,2.0,92,0.00,,,0.00,Rainwise IP-100,2013-09-30 12:24:00,
2013-09-30 08:25:00,53.0,50.0,29.58,West,270,1.0,2.0,92,0.00,,,0.00,Rainwise IP-100,2013-09-30 12:25:00,
2013-09-30 08:26:00,54.0,51.0,29.58,West,270,2.0,2.0,91,0.00,,,0.00,Rainwise IP-100,2013-09-30 12:26:00,
2013-09-30 08:27:00,54.0,51.0,29.58,West,270,0.0,3.0,90,0.00,,,0.00,Rainwise IP-100,2013-09-30 12:27:00,
2013-09-30 08:29:00,55.0,52.0,29.58,West,270,0.0,3.0,89,0.00,,,0.00,Rainwise IP-100,2013-09-30 12:29:00,
2013-09-30 08:30:00,55.0,52.0,29.58,West,270,0.0,3.0,89,0.00,,,0.00,Rainwise IP-100,2013-09-30 12:30:00,
2013-09-30 08:32:00,55.0,52.0,29.58,West,270,2.0,3.0,89,0.00,,,0.00,Rainwise IP-100,2013-09-30 12:32:00,
2013-09-30 08:33:00,55.0,52.0,29.58,West,270,1.0,2.0,89,0.00,,,0.00,Rainwise IP-100,2013-09-30 12:33:00,
2013-09-30 08:34:00,55.0,52.0,29.58,West,270,0.0,2.0,89,0.00,,,0.00,Rainwise IP-100,2013-09-30 12:34:00,
2013-09-30 08:35:00,55.0,52.0,29.58,West,270,0.0,2.0,89,0.00,,,0.00,Rainwise IP-100,2013-09-30 12:35:00,
2013-09-30 08:37:00,56.0,53.0,29.58,West,270,0.0,2.0,89,0.00,,,0.00,Rainwise IP-100,2013-09-30 12:37:00,
2013-09-30 08:38:00,56.0,53.0,29.58,West,270,1.0,2.0,88,0.00,,,0.00,Rainwise IP-100,2013-09-30 12:38:00,
2013-09-30 08:39:00,57.0,53.0,29.59,West,270,1.0,2.0,87,0.00,,,0.00,Rainwise IP-100,2013-09-30 12:39:00,
2013-09-30 08:40:00,57.0,53.0,29.59,West,270,0.0,2.0,87,0.00,,,0.00,Rainwise IP-100,2013-09-30 12:40:00,
2013-09-30 08:42:00,57.0,53.0,29.59,West,270,1.0,2.0,86,0.00,,,0.00,Rainwise IP-100,2013-09-30 12:42:00,
2013-09-30 08:43:00,57.0,53.0,29.59,West,270,0.0,2.0,86,0.00,,,0.00,Rainwise IP-100,2013-09-30 12:43:00,
2013-09-30 08:44:00,57.0,53.0,29.59,SW,225,0.0,2.0,86,0.00,,,0.00,Rainwise IP-100,2013-09-30 12:44:00,
2013-09-30 08:45:00,57.0,53.0,29.59,SW,225,2.0,2.0,85,0.00,,,0.00,Rainwise IP-100,2013-09-30 12:45:00,
2013-09-30 08:46:00,57.0,53.0,29.59,SW,225,1.0,3.0,85,0.00,,,0.00,Rainwise IP-100,2013-09-30 12:46:00,
2013-09-30 08:48:00,58.0,54.0,29.59,SW,225,3.0,3.0,85,0.00,,,0.00,Rainwise IP-100,2013-09-30 12:48:00,
2013-09-30 08:49:00,58.0,53.0,29.59,SW,225,3.0,4.0,84,0.00,,,0.00,Rainwise IP-100,2013-09-30 12:49:00,
2013-09-30 08:51:00,58.0,53.0,29.59,SW,225,1.0,4.0,84,0.00,,,0.00,Rainwise IP-100,2013-09-30 12:51:00,
2013-09-30 08:53:00,58.0,53.0,29.59,West,270,2.0,4.0,84,0.00,,,0.00,Rainwise IP-100,2013-09-30 12:53:00,
2013-09-30 08:54:00,58.0,53.0,29.59,West,270,2.0,3.0,84,0.00,,,0.00,Rainwise IP-100,2013-09-30 12:54:00,
2013-09-30 08:55:00,58.0,53.0,29.59,West,270,3.0,4.0,84,0.00,,,0.00,Rainwise IP-100,2013-09-30 12:55:00,
2013-09-30 08:56:00,58.0,53.0,29.59,West,270,0.0,4.0,84,0.00,,,0.00,Rainwise IP-100,2013-09-30 12:56:00,
2013-09-30 08:58:00,59.0,54.0,29.59,East,90,0.0,4.0,84,0.00,,,0.00,Rainwise IP-100,2013-09-30 12:58:00,
2013-09-30 08:59:00,59.0,54.0,29.58,ESE,112,0.0,4.0,83,0.00,,,0.00,Rainwise IP-100,2013-09-30 12:59:00,
2013-09-30 09:00:00,59.0,54.0,29.58,East,90,0.0,4.0,83,0.00,,,0.00,Rainwise IP-100,2013-09-30 13:00:00,
2013-09-30 09:01:00,59.0,54.0,29.58,West,270,0.0,4.0,83,0.00,,,0.00,Rainwise IP-100,2013-09-30 13:01:00,
2013-09-30 09:03:00,59.0,53.0,29.58,West,270,1.0,4.0,82,0.00,,,0.00,Rainwise IP-100,2013-09-30 13:03:00,
2013-09-30 09:04:00,59.0,54.0,29.58,West,270,3.0,4.0,83,0.00,,,0.00,Rainwise IP-100,2013-09-30 13:04:00,
2013-09-30 09:05:00,59.0,54.0,29.58,West,270,2.0,4.0,83,0.00,,,0.00,Rainwise IP-100,2013-09-30 13:05:00,
2013-09-30 09:06:00,59.0,53.0,29.58,West,270,0.0,4.0,82,0.00,,,0.00,Rainwise IP-100,2013-09-30 13:06:00,
2013-09-30 09:07:00,59.0,53.0,29.58,NE,45,0.0,4.0,82,0.00,,,0.00,Rainwise IP-100,2013-09-30 13:07:00,
2013-09-30 09:09:00,60.0,54.0,29.58,NE,45,0.0,4.0,82,0.00,,,0.00,Rainwise IP-100,2013-09-30 13:09:00,
2013-09-30 09:10:00,60.0,54.0,29.58,NE,45,0.0,4.0,83,0.00,,,0.00,Rainwise IP-100,2013-09-30 13:10:00,
2013-09-30 09:12:00,60.0,54.0,29.58,NE,45,0.0,3.0,83,0.00,,,0.00,Rainwise IP-100,2013-09-30 13:12:00,
2013-09-30 09:14:00,60.0,54.0,29.58,West,270,0.0,3.0,82,0.00,,,0.00,Rainwise IP-100,2013-09-30 13:14:00,
2013-09-30 09:15:00,60.0,54.0,29.58,West,270,1.0,3.0,82,0.00,,,0.00,Rainwise IP-100,2013-09-30 13:15:00,
2013-09-30 09:17:00,61.0,54.0,29.58,ENE,67,3.0,4.0,79,0.00,,,0.00,Rainwise IP-100,2013-09-30 13:17:00,
2013-09-30 09:19:00,61.0,54.0,29.58,ENE,67,0.0,4.0,79,0.00,,,0.00,Rainwise IP-100,2013-09-30 13:19:00,
2013-09-30 09:20:00,61.0,54.0,29.58,ENE,67,0.0,4.0,79,0.00,,,0.00,Rainwise IP-100,2013-09-30 13:20:00,
2013-09-30 09:23:00,62.0,56.0,29.58,WSW,247,3.0,3.0,80,0.00,,,0.00,Rainwise IP-100,2013-09-30 13:23:00,
2013-09-30 09:24:00,62.0,55.0,29.58,NE,45,3.0,3.0,79,0.00,,,0.00,Rainwise IP-100,2013-09-30 13:24:00,
2013-09-30 09:25:00,62.0,55.0,29.58,NE,45,3.0,4.0,78,0.00,,,0.00,Rainwise IP-100,2013-09-30 13:25:00,
2013-09-30 09:26:00,62.0,55.0,29.58,NE,45,3.0,4.0,78,0.00,,,0.00,Rainwise IP-100,2013-09-30 13:26:00,
2013-09-30 09:28:00,62.0,54.0,29.58,NE,45,5.0,5.0,77,0.00,,,0.00,Rainwise IP-100,2013-09-30 13:28:00,
2013-09-30 09:30:00,61.0,54.0,29.58,North,360,1.0,6.0,79,0.00,,,0.00,Rainwise IP-100,2013-09-30 13:30:00,
2013-09-30 09:31:00,61.0,54.0,29.58,North,360,1.0,6.0,79,0.00,,,0.00,Rainwise IP-100,2013-09-30 13:31:00,
2013-09-30 09:33:00,61.0,54.0,29.58,West,270,0.0,6.0,78,0.00,,,0.00,Rainwise IP-100,2013-09-30 13:33:00,
2013-09-30 09:36:00,62.0,55.0,29.58,South,180,1.0,3.0,79,0.00,,,0.00,Rainwise IP-100,2013-09-30 13:36:00,
2013-09-30 09:38:00,62.0,55.0,29.58,North,360,0.0,3.0,78,0.00,,,0.00,Rainwise IP-100,2013-09-30 13:38:00,
2013-09-30 09:41:00,62.0,54.0,29.57,West,270,1.0,5.0,76,0.00,,,0.00,Rainwise IP-100,2013-09-30 13:41:00,
2013-09-30 09:42:00,62.0,54.0,29.57,SW,225,3.0,6.0,75,0.00,,,0.00,Rainwise IP-100,2013-09-30 13:42:00,
2013-09-30 09:43:00,62.0,54.0,29.57,SW,225,0.0,6.0,75,0.00,,,0.00,Rainwise IP-100,2013-09-30 13:43:00,
2013-09-30 09:44:00,62.0,54.0,29.57,West,270,1.0,6.0,76,0.00,,,0.00,Rainwise IP-100,2013-09-30 13:44:00,
2013-09-30 09:46:00,62.0,53.0,29.57,West,270,4.0,6.0,74,0.00,,,0.00,Rainwise IP-100,2013-09-30 13:46:00,
2013-09-30 09:47:00,62.0,53.0,29.57,West,270,6.0,6.0,74,0.00,,,0.00,Rainwise IP-100,2013-09-30 13:47:00,
2013-09-30 09:48:00,62.0,54.0,29.57,West,270,0.0,6.0,75,0.00,,,0.00,Rainwise IP-100,2013-09-30 13:48:00,
2013-09-30 09:49:00,62.0,54.0,29.58,NE,45,4.0,6.0,75,0.00,,,0.00,Rainwise IP-100,2013-09-30 13:49:00,
2013-09-30 09:51:00,61.0,54.0,29.58,West,270,3.0,6.0,77,0.00,,,0.00,Rainwise IP-100,2013-09-30 13:51:00,
2013-09-30 09:52:00,61.0,54.0,29.58,West,270,3.0,6.0,77,0.00,,,0.00,Rainwise IP-100,2013-09-30 13:52:00,
2013-09-30 09:54:00,62.0,54.0,29.58,East,90,4.0,6.0,77,0.00,,,0.00,Rainwise IP-100,2013-09-30 13:54:00,
2013-09-30 09:57:00,62.0,55.0,29.58,NE,45,0.0,5.0,79,0.00,,,0.00,Rainwise IP-100,2013-09-30 13:57:00,
2013-09-30 09:58:00,62.0,56.0,29.58,NE,45,0.0,5.0,80,0.00,,,0.00,Rainwise IP-100,2013-09-30 13:58:00,
2013-09-30 09:59:00,62.0,54.0,29.57,North,360,3.0,5.0,75,0.00,,,0.00,Rainwise IP-100,2013-09-30 13:59:00,
2013-09-30 10:02:00,62.0,54.0,29.57,NE,45,1.0,7.0,75,0.00,,,0.00,Rainwise IP-100,2013-09-30 14:02:00,
2013-09-30 10:03:00,62.0,53.0,29.57,South,180,0.0,7.0,74,0.00,,,0.00,Rainwise IP-100,2013-09-30 14:03:00,
2013-09-30 10:04:00,62.0,54.0,29.57,West,270,0.0,7.0,75,0.00,,,0.00,Rainwise IP-100,2013-09-30 14:04:00,
2013-09-30 10:05:00,62.0,54.0,29.57,NE,45,4.0,7.0,75,0.00,,,0.00,Rainwise IP-100,2013-09-30 14:05:00,
2013-09-30 10:07:00,61.0,52.0,29.57,ENE,67,4.0,6.0,73,0.00,,,0.00,Rainwise IP-100,2013-09-30 14:07:00,
2013-09-30 10:08:00,61.0,52.0,29.57,East,90,4.0,6.0,73,0.00,,,0.00,Rainwise IP-100,2013-09-30 14:08:00,
2013-09-30 10:09:00,61.0,53.0,29.57,East,90,3.0,6.0,74,0.00,,,0.00,Rainwise IP-100,2013-09-30 14:09:00,
2013-09-30 10:11:00,61.0,54.0,29.57,SW,225,4.0,6.0,78,0.00,,,0.00,Rainwise IP-100,2013-09-30 14:11:00,
2013-09-30 10:12:00,61.0,54.0,29.57,SW,225,4.0,6.0,78,0.00,,,0.00,Rainwise IP-100,2013-09-30 14:12:00,
2013-09-30 10:14:00,61.0,54.0,29.57,SW,225,3.0,6.0,77,0.00,,,0.00,Rainwise IP-100,2013-09-30 14:14:00,
2013-09-30 10:18:00,61.0,53.0,29.57,West,270,5.0,7.0,74,0.00,,,0.00,Rainwise IP-100,2013-09-30 14:18:00,
2013-09-30 10:19:00,61.0,53.0,29.57,SW,225,5.0,7.0,75,0.00,,,0.00,Rainwise IP-100,2013-09-30 14:19:00,
2013-09-30 10:24:00,61.0,54.0,29.57,WSW,247,1.0,6.0,77,0.00,,,0.00,Rainwise IP-100,2013-09-30 14:24:00,
2013-09-30 10:25:00,61.0,53.0,29.57,WSW,247,0.0,6.0,75,0.00,,,0.00,Rainwise IP-100,2013-09-30 14:25:00,
2013-09-30 10:29:00,62.0,53.0,29.57,SSW,202,0.0,4.0,74,0.00,,,0.00,Rainwise IP-100,2013-09-30 14:29:00,
2013-09-30 10:30:00,62.0,54.0,29.57,SSW,202,0.0,4.0,77,0.00,,,0.00,Rainwise IP-100,2013-09-30 14:30:00,
2013-09-30 10:34:00,62.0,52.0,29.57,SSW,202,4.0,6.0,70,0.00,,,0.00,Rainwise IP-100,2013-09-30 14:34:00,
2013-09-30 10:35:00,62.0,52.0,29.57,SSE,157,5.0,6.0,70,0.00,,,0.00,Rainwise IP-100,2013-09-30 14:35:00,
2013-09-30 10:36:00,61.0,50.0,29.57,South,180,7.0,8.0,68,0.00,,,0.00,Rainwise IP-100,2013-09-30 14:36:00,
2013-09-30 10:39:00,61.0,51.0,29.57,South,180,2.0,8.0,70,0.00,,,0.00,Rainwise IP-100,2013-09-30 14:39:00,
2013-09-30 10:40:00,60.0,51.0,29.57,South,180,5.0,8.0,74,0.00,,,0.00,Rainwise IP-100,2013-09-30 14:40:00,
2013-09-30 10:41:00,60.0,51.0,29.57,South,180,4.0,8.0,74,0.00,,,0.00,Rainwise IP-100,2013-09-30 14:41:00,
2013-09-30 10:44:00,61.0,52.0,29.57,South,180,3.0,7.0,73,0.00,,,0.00,Rainwise IP-100,2013-09-30 14:44:00,
2013-09-30 10:45:00,60.0,51.0,29.57,SSW,202,7.0,10.0,73,0.00,,,0.00,Rainwise IP-100,2013-09-30 14:45:00,
2013-09-30 10:46:00,60.0,52.0,29.57,South,180,7.0,10.0,75,0.00,,,0.00,Rainwise IP-100,2013-09-30 14:46:00,
2013-09-30 10:47:00,59.0,51.0,29.57,South,180,8.0,10.0,76,0.00,,,0.00,Rainwise IP-100,2013-09-30 14:47:00,
2013-09-30 10:49:00,59.0,52.0,29.56,SSE,157,4.0,10.0,78,0.00,,,0.00,Rainwise IP-100,2013-09-30 14:49:00,
2013-09-30 10:50:00,58.0,52.0,29.56,South,180,10.0,10.0,79,0.00,,,0.00,Rainwise IP-100,2013-09-30 14:50:00,
2013-09-30 10:51:00,58.0,52.0,29.56,South,180,9.0,10.0,79,0.00,,,0.00,Rainwise IP-100,2013-09-30 14:51:00,
2013-09-30 10:52:00,57.0,51.0,29.56,South,180,6.0,10.0,81,0.00,,,0.00,Rainwise IP-100,2013-09-30 14:52:00,
2013-09-30 10:54:00,57.0,52.0,29.56,South,180,10.0,11.0,82,0.00,,,0.00,Rainwise IP-100,2013-09-30 14:54:00,
2013-09-30 10:55:00,56.0,50.0,29.56,South,180,9.0,12.0,82,0.00,,,0.00,Rainwise IP-100,2013-09-30 14:55:00,
2013-09-30 10:56:00,56.0,50.0,29.56,South,180,8.0,12.0,82,0.00,,,0.00,Rainwise IP-100,2013-09-30 14:56:00,
2013-09-30 10:58:00,56.0,50.0,29.56,South,180,5.0,12.0,83,0.00,,,0.00,Rainwise IP-100,2013-09-30 14:58:00,
2013-09-30 11:00:00,56.0,50.0,29.55,South,180,6.0,11.0,83,0.00,,,0.00,Rainwise IP-100,2013-09-30 15:00:00,
2013-09-30 11:01:00,56.0,50.0,29.55,South,180,9.0,11.0,83,0.00,,,0.00,Rainwise IP-100,2013-09-30 15:01:00,
2013-09-30 11:02:00,56.0,50.0,29.55,South,180,4.0,10.0,83,0.00,,,0.00,Rainwise IP-100,2013-09-30 15:02:00,
2013-09-30 11:03:00,56.0,50.0,29.55,SSE,157,5.0,10.0,83,0.00,,,0.00,Rainwise IP-100,2013-09-30 15:03:00,
2013-09-30 11:05:00,56.0,51.0,29.55,South,180,6.0,10.0,84,0.00,,,0.00,Rainwise IP-100,2013-09-30 15:05:00,
2013-09-30 11:06:00,56.0,51.0,29.55,South,180,9.0,10.0,84,0.00,,,0.00,Rainwise IP-100,2013-09-30 15:06:00,
2013-09-30 11:07:00,56.0,51.0,29.55,South,180,8.0,10.0,84,0.00,,,0.00,Rainwise IP-100,2013-09-30 15:07:00,
2013-09-30 11:09:00,57.0,52.0,29.55,SSE,157,6.0,10.0,84,0.00,,,0.00,Rainwise IP-100,2013-09-30 15:09:00,
2013-09-30 11:10:00,56.0,51.0,29.55,South,180,7.0,9.0,84,0.00,,,0.00,Rainwise IP-100,2013-09-30 15:10:00,
2013-09-30 11:11:00,56.0,51.0,29.55,South,180,7.0,9.0,84,0.00,,,0.00,Rainwise IP-100,2013-09-30 15:11:00,
2013-09-30 11:12:00,56.0,51.0,29.55,SSW,202,6.0,9.0,84,0.00,,,0.00,Rainwise IP-100,2013-09-30 15:12:00,
2013-09-30 11:15:00,57.0,52.0,29.55,South,180,4.0,9.0,83,0.00,,,0.00,Rainwise IP-100,2013-09-30 15:15:00,
2013-09-30 11:16:00,57.0,52.0,29.55,South,180,6.0,9.0,83,0.00,,,0.00,Rainwise IP-100,2013-09-30 15:16:00,
2013-09-30 11:17:00,57.0,52.0,29.55,South,180,3.0,9.0,83,0.00,,,0.00,Rainwise IP-100,2013-09-30 15:17:00,
2013-09-30 11:21:00,58.0,53.0,29.55,SSW,202,6.0,8.0,81,0.00,,,0.00,Rainwise IP-100,2013-09-30 15:21:00,
2013-09-30 11:22:00,58.0,53.0,29.55,South,180,6.0,8.0,81,0.00,,,0.00,Rainwise IP-100,2013-09-30 15:22:00,
2013-09-30 11:23:00,58.0,53.0,29.55,SSW,202,6.0,8.0,81,0.00,,,0.00,Rainwise IP-100,2013-09-30 15:23:00,
2013-09-30 11:26:00,58.0,54.0,29.55,SE,135,4.0,8.0,85,0.00,,,0.00,Rainwise IP-100,2013-09-30 15:26:00,
2013-09-30 11:27:00,59.0,54.0,29.55,SE,135,2.0,8.0,85,0.00,,,0.00,Rainwise IP-100,2013-09-30 15:27:00,
2013-09-30 11:28:00,59.0,55.0,29.55,SE,135,1.0,8.0,87,0.00,,,0.00,Rainwise IP-100,2013-09-30 15:28:00,
2013-09-30 11:31:00,60.0,53.0,29.55,South,180,8.0,10.0,78,0.00,,,0.00,Rainwise IP-100,2013-09-30 15:31:00,
2013-09-30 11:32:00,60.0,53.0,29.55,South,180,4.0,10.0,78,0.00,,,0.00,Rainwise IP-100,2013-09-30 15:32:00,
2013-09-30 11:33:00,59.0,52.0,29.55,South,180,7.0,10.0,78,0.00,,,0.00,Rainwise IP-100,2013-09-30 15:33:00,
2013-09-30 11:36:00,59.0,53.0,29.55,SSW,202,6.0,11.0,80,0.00,,,0.00,Rainwise IP-100,2013-09-30 15:36:00,
2013-09-30 11:37:00,59.0,53.0,29.55,SSW,202,6.0,11.0,80,0.00,,,0.00,Rainwise IP-100,2013-09-30 15:37:00,
2013-09-30 11:38:00,59.0,53.0,29.55,South,180,9.0,11.0,80,0.00,,,0.00,Rainwise IP-100,2013-09-30 15:38:00,
2013-09-30 11:41:00,59.0,53.0,29.55,SSE,157,4.0,9.0,80,0.00,,,0.00,Rainwise IP-100,2013-09-30 15:41:00,
2013-09-30 11:43:00,60.0,54.0,29.55,SSW,202,7.0,9.0,80,0.00,,,0.00,Rainwise IP-100,2013-09-30 15:43:00,
2013-09-30 11:44:00,60.0,54.0,29.55,SSW,202,4.0,8.0,81,0.00,,,0.00,Rainwise IP-100,2013-09-30 15:44:00,
2013-09-30 11:47:00,60.0,53.0,29.55,WSW,247,4.0,10.0,77,0.00,,,0.00,Rainwise IP-100,2013-09-30 15:47:00,
2013-09-30 11:48:00,60.0,53.0,29.55,South,180,6.0,10.0,77,0.00,,,0.00,Rainwise IP-100,2013-09-30 15:48:00,
2013-09-30 11:49:00,60.0,53.0,29.55,South,180,8.0,10.0,76,0.00,,,0.00,Rainwise IP-100,2013-09-30 15:49:00,
2013-09-30 11:52:00,59.0,52.0,29.55,South,180,8.0,10.0,78,0.00,,,0.00,Rainwise IP-100,2013-09-30 15:52:00,
2013-09-30 11:54:00,59.0,52.0,29.55,South,180,8.0,10.0,78,0.00,,,0.00,Rainwise IP-100,2013-09-30 15:54:00,
2013-09-30 11:55:00,59.0,52.0,29.55,South,180,6.0,10.0,78,0.00,,,0.00,Rainwise IP-100,2013-09-30 15:55:00,
2013-09-30 11:57:00,59.0,53.0,29.55,South,180,7.0,9.0,79,0.00,,,0.00,Rainwise IP-100,2013-09-30 15:57:00,
2013-09-30 11:59:00,59.0,52.0,29.54,SW,225,5.0,8.0,78,0.00,,,0.00,Rainwise IP-100,2013-09-30 15:59:00,
2013-09-30 12:00:00,59.0,53.0,29.54,SE,135,5.0,10.0,79,0.00,,,0.00,Rainwise IP-100,2013-09-30 16:00:00,
2013-09-30 12:02:00,59.0,52.0,29.54,SSW,202,6.0,10.0,78,0.00,,,0.00,Rainwise IP-100,2013-09-30 16:02:00,
2013-09-30 12:05:00,59.0,52.0,29.54,SW,225,3.0,8.0,78,0.00,,,0.00,Rainwise IP-100,2013-09-30 16:05:00,
2013-09-30 12:06:00,60.0,53.0,29.54,South,180,8.0,8.0,79,0.00,,,0.00,Rainwise IP-100,2013-09-30 16:06:00,
2013-09-30 12:07:00,60.0,53.0,29.54,South,180,5.0,9.0,79,0.00,,,0.00,Rainwise IP-100,2013-09-30 16:07:00,
2013-09-30 12:10:00,60.0,54.0,29.54,South,180,6.0,9.0,80,0.00,,,0.00,Rainwise IP-100,2013-09-30 16:10:00,
2013-09-30 12:11:00,60.0,54.0,29.54,South,180,6.0,9.0,80,0.00,,,0.00,Rainwise IP-100,2013-09-30 16:11:00,
2013-09-30 12:12:00,60.0,54.0,29.54,South,180,3.0,7.0,80,0.00,,,0.00,Rainwise IP-100,2013-09-30 16:12:00,
2013-09-30 12:16:00,61.0,54.0,29.54,SSE,157,6.0,8.0,77,0.00,,,0.00,Rainwise IP-100,2013-09-30 16:16:00,
2013-09-30 12:17:00,61.0,54.0,29.54,SSW,202,3.0,8.0,77,0.00,,,0.00,Rainwise IP-100,2013-09-30 16:17:00,
2013-09-30 12:21:00,61.0,53.0,29.54,SSW,202,6.0,8.0,76,0.00,,,0.00,Rainwise IP-100,2013-09-30 16:21:00,
2013-09-30 12:22:00,61.0,53.0,29.54,South,180,5.0,8.0,76,0.00,,,0.00,Rainwise IP-100,2013-09-30 16:22:00,
2013-09-30 12:26:00,61.0,54.0,29.54,South,180,6.0,9.0,78,0.00,,,0.00,Rainwise IP-100,2013-09-30 16:26:00,
2013-09-30 12:27:00,61.0,54.0,29.54,SW,225,6.0,9.0,78,0.00,,,0.00,Rainwise IP-100,2013-09-30 16:27:00,
2013-09-30 12:32:00,61.0,53.0,29.54,SSW,202,8.0,9.0,75,0.00,,,0.00,Rainwise IP-100,2013-09-30 16:32:00,
2013-09-30 12:33:00,61.0,53.0,29.54,South,180,6.0,9.0,76,0.00,,,0.00,Rainwise IP-100,2013-09-30 16:33:00,
2013-09-30 12:37:00,61.0,54.0,29.54,South,180,1.0,10.0,78,0.00,,,0.00,Rainwise IP-100,2013-09-30 16:37:00,
2013-09-30 12:38:00,61.0,54.0,29.54,South,180,3.0,10.0,80,0.00,,,0.00,Rainwise IP-100,2013-09-30 16:38:00,
2013-09-30 12:42:00,61.0,54.0,29.54,SSE,157,4.0,9.0,77,0.00,,,0.00,Rainwise IP-100,2013-09-30 16:42:00,
2013-09-30 12:43:00,61.0,53.0,29.54,SSE,157,3.0,9.0,75,0.00,,,0.00,Rainwise IP-100,2013-09-30 16:43:00,
2013-09-30 12:44:00,61.0,53.0,29.54,SSE,157,1.0,9.0,76,0.00,,,0.00,Rainwise IP-100,2013-09-30 16:44:00,
2013-09-30 12:47:00,62.0,53.0,29.54,South,180,3.0,8.0,74,0.00,,,0.00,Rainwise IP-100,2013-09-30 16:47:00,
2013-09-30 12:48:00,62.0,53.0,29.54,ESE,112,1.0,8.0,74,0.00,,,0.00,Rainwise IP-100,2013-09-30 16:48:00,
2013-09-30 12:49:00,62.0,53.0,29.54,SE,135,6.0,8.0,72,0.00,,,0.00,Rainwise IP-100,2013-09-30 16:49:00,
2013-09-30 12:51:00,61.0,52.0,29.54,South,180,3.0,8.0,73,0.00,,,0.00,Rainwise IP-100,2013-09-30 16:51:00,
2013-09-30 12:52:00,61.0,52.0,29.54,ESE,112,4.0,10.0,72,0.00,,,0.00,Rainwise IP-100,2013-09-30 16:52:00,
2013-09-30 12:53:00,61.0,52.0,29.54,ESE,112,2.0,10.0,72,0.00,,,0.00,Rainwise IP-100,2013-09-30 16:53:00,
2013-09-30 12:54:00,61.0,53.0,29.54,SSW,202,5.0,10.0,74,0.00,,,0.00,Rainwise IP-100,2013-09-30 16:54:00,
2013-09-30 12:56:00,61.0,52.0,29.54,ESE,112,5.0,10.0,73,0.00,,,0.00,Rainwise IP-100,2013-09-30 16:56:00,
2013-09-30 12:58:00,61.0,52.0,29.54,SSE,157,6.0,11.0,73,0.00,,,0.00,Rainwise IP-100,2013-09-30 16:58:00,
2013-09-30 12:59:00,61.0,52.0,29.53,SSW,202,4.0,11.0,72,0.00,,,0.00,Rainwise IP-100,2013-09-30 16:59:00,
2013-09-30 13:01:00,61.0,52.0,29.53,ESE,112,7.0,11.0,72,0.00,,,0.00,Rainwise IP-100,2013-09-30 17:01:00,
2013-09-30 13:03:00,61.0,51.0,29.53,SW,225,3.0,10.0,71,0.00,,,0.00,Rainwise IP-100,2013-09-30 17:03:00,
2013-09-30 13:04:00,61.0,51.0,29.53,SE,135,3.0,10.0,71,0.00,,,0.00,Rainwise IP-100,2013-09-30 17:04:00,
2013-09-30 13:07:00,61.0,51.0,29.53,SE,135,5.0,9.0,70,0.00,,,0.00,Rainwise IP-100,2013-09-30 17:07:00,
2013-09-30 13:08:00,61.0,51.0,29.53,SSE,157,10.0,10.0,70,0.00,,,0.00,Rainwise IP-100,2013-09-30 17:08:00,
2013-09-30 13:09:00,62.0,52.0,29.53,South,180,5.0,10.0,69,0.00,,,0.00,Rainwise IP-100,2013-09-30 17:09:00,
2013-09-30 13:10:00,61.0,50.0,29.53,SE,135,7.0,10.0,69,0.00,,,0.00,Rainwise IP-100,2013-09-30 17:10:00,
2013-09-30 13:12:00,61.0,50.0,29.53,South,180,7.0,10.0,69,0.00,,,0.00,Rainwise IP-100,2013-09-30 17:12:00,
2013-09-30 13:13:00,61.0,51.0,29.53,South,180,4.0,10.0,70,0.00,,,0.00,Rainwise IP-100,2013-09-30 17:13:00,
2013-09-30 13:14:00,61.0,51.0,29.53,SSE,157,4.0,8.0,70,0.00,,,0.00,Rainwise IP-100,2013-09-30 17:14:00,
2013-09-30 13:15:00,61.0,51.0,29.53,South,180,3.0,8.0,70,0.00,,,0.00,Rainwise IP-100,2013-09-30 17:15:00,
2013-09-30 13:17:00,62.0,53.0,29.53,ESE,112,5.0,8.0,71,0.00,,,0.00,Rainwise IP-100,2013-09-30 17:17:00,
2013-09-30 13:19:00,63.0,53.0,29.53,South,180,8.0,8.0,70,0.00,,,0.00,Rainwise IP-100,2013-09-30 17:19:00,
2013-09-30 13:20:00,62.0,50.0,29.53,South,180,5.0,8.0,65,0.00,,,0.00,Rainwise IP-100,2013-09-30 17:20:00,
2013-09-30 13:22:00,62.0,50.0,29.53,SE,135,4.0,8.0,65,0.00,,,0.00,Rainwise IP-100,2013-09-30 17:22:00,
2013-09-30 13:24:00,62.0,50.0,29.53,SSW,202,5.0,8.0,66,0.00,,,0.00,Rainwise IP-100,2013-09-30 17:24:00,
2013-09-30 13:25:00,62.0,51.0,29.53,SE,135,5.0,8.0,67,0.00,,,0.00,Rainwise IP-100,2013-09-30 17:25:00,
2013-09-30 13:27:00,62.0,50.0,29.53,South,180,6.0,8.0,65,0.00,,,0.00,Rainwise IP-100,2013-09-30 17:27:00,
2013-09-30 13:29:00,63.0,51.0,29.52,ESE,112,5.0,9.0,65,0.00,,,0.00,Rainwise IP-100,2013-09-30 17:29:00,
2013-09-30 13:30:00,62.0,52.0,29.52,South,180,3.0,9.0,69,0.00,,,0.00,Rainwise IP-100,2013-09-30 17:30:00,
2013-09-30 13:31:00,63.0,52.0,29.52,SSW,202,3.0,9.0,67,0.00,,,0.00,Rainwise IP-100,2013-09-30 17:31:00,
2013-09-30 13:33:00,63.0,50.0,29.52,SSW,202,7.0,8.0,62,0.00,,,0.00,Rainwise IP-100,2013-09-30 17:33:00,
2013-09-30 13:34:00,63.0,50.0,29.52,South,180,6.0,8.0,62,0.00,,,0.00,Rainwise IP-100,2013-09-30 17:34:00,
2013-09-30 13:35:00,63.0,50.0,29.52,SSE,157,5.0,8.0,62,0.00,,,0.00,Rainwise IP-100,2013-09-30 17:35:00,
2013-09-30 13:36:00,63.0,50.0,29.52,South,180,3.0,8.0,63,0.00,,,0.00,Rainwise IP-100,2013-09-30 17:36:00,
2013-09-30 13:39:00,62.0,49.0,29.52,South,180,7.0,9.0,63,0.00,,,0.00,Rainwise IP-100,2013-09-30 17:39:00,
2013-09-30 13:40:00,62.0,49.0,29.52,South,180,7.0,9.0,63,0.00,,,0.00,Rainwise IP-100,2013-09-30 17:40:00,
2013-09-30 13:41:00,62.0,49.0,29.52,SE,135,3.0,9.0,63,0.00,,,0.00,Rainwise IP-100,2013-09-30 17:41:00,
2013-09-30 13:45:00,63.0,49.0,29.52,South,180,4.0,10.0,61,0.00,,,0.00,Rainwise IP-100,2013-09-30 17:45:00,
2013-09-30 13:46:00,63.0,50.0,29.52,ESE,112,4.0,10.0,63,0.00,,,0.00,Rainwise IP-100,2013-09-30 17:46:00,
2013-09-30 13:50:00,63.0,49.0,29.52,South,180,5.0,9.0,60,0.00,,,0.00,Rainwise IP-100,2013-09-30 17:50:00,
2013-09-30 13:51:00,63.0,49.0,29.52,SSW,202,5.0,9.0,60,0.00,,,0.00,Rainwise IP-100,2013-09-30 17:51:00,
2013-09-30 13:53:00,63.0,49.0,29.52,SSE,157,3.0,8.0,60,0.00,,,0.00,Rainwise IP-100,2013-09-30 17:53:00,
2013-09-30 13:55:00,63.0,50.0,29.52,SSW,202,8.0,8.0,62,0.00,,,0.00,Rainwise IP-100,2013-09-30 17:55:00,
2013-09-30 13:56:00,63.0,48.0,29.52,South,180,8.0,10.0,59,0.00,,,0.00,Rainwise IP-100,2013-09-30 17:56:00,
2013-09-30 13:59:00,63.0,48.0,29.52,South,180,6.0,10.0,59,0.00,,,0.00,Rainwise IP-100,2013-09-30 17:59:00,
2013-09-30 14:00:00,63.0,49.0,29.52,South,180,6.0,10.0,60,0.00,,,0.00,Rainwise IP-100,2013-09-30 18:00:00,
2013-09-30 14:01:00,63.0,49.0,29.52,SSE,157,8.0,9.0,60,0.00,,,0.00,Rainwise IP-100,2013-09-30 18:01:00,
2013-09-30 14:02:00,63.0,49.0,29.52,South,180,5.0,9.0,61,0.00,,,0.00,Rainwise IP-100,2013-09-30 18:02:00,
2013-09-30 14:05:00,63.0,49.0,29.52,South,180,5.0,9.0,61,0.00,,,0.00,Rainwise IP-100,2013-09-30 18:05:00,
2013-09-30 14:06:00,63.0,49.0,29.52,South,180,5.0,9.0,61,0.00,,,0.00,Rainwise IP-100,2013-09-30 18:06:00,
2013-09-30 14:07:00,63.0,49.0,29.52,South,180,6.0,9.0,61,0.00,,,0.00,Rainwise IP-100,2013-09-30 18:07:00,
2013-09-30 14:08:00,63.0,49.0,29.52,SSE,157,7.0,9.0,60,0.00,,,0.00,Rainwise IP-100,2013-09-30 18:08:00,
2013-09-30 14:10:00,63.0,49.0,29.51,South,180,7.0,9.0,61,0.00,,,0.00,Rainwise IP-100,2013-09-30 18:10:00,
2013-09-30 14:11:00,63.0,49.0,29.51,SSE,157,6.0,9.0,61,0.00,,,0.00,Rainwise IP-100,2013-09-30 18:11:00,
2013-09-30 14:12:00,63.0,50.0,29.51,SSW,202,4.0,9.0,62,0.00,,,0.00,Rainwise IP-100,2013-09-30 18:12:00,
2013-09-30 14:13:00,63.0,50.0,29.51,South,180,4.0,9.0,62,0.00,,,0.00,Rainwise IP-100,2013-09-30 18:13:00,
2013-09-30 14:16:00,64.0,50.0,29.51,South,180,5.0,8.0,61,0.00,,,0.00,Rainwise IP-100,2013-09-30 18:16:00,
2013-09-30 14:17:00,64.0,50.0,29.51,South,180,5.0,8.0,61,0.00,,,0.00,Rainwise IP-100,2013-09-30 18:17:00,
2013-09-30 14:18:00,64.0,50.0,29.51,South,180,5.0,9.0,60,0.00,,,0.00,Rainwise IP-100,2013-09-30 18:18:00,
2013-09-30 14:21:00,63.0,49.0,29.52,South,180,8.0,9.0,60,0.00,,,0.00,Rainwise IP-100,2013-09-30 18:21:00,
2013-09-30 14:23:00,63.0,49.0,29.52,South,180,7.0,10.0,61,0.00,,,0.00,Rainwise IP-100,2013-09-30 18:23:00,
2013-09-30 14:27:00,63.0,49.0,29.52,SE,135,5.0,9.0,61,0.00,,,0.00,Rainwise IP-100,2013-09-30 18:27:00,
2013-09-30 14:28:00,63.0,50.0,29.52,SW,225,2.0,9.0,62,0.00,,,0.00,Rainwise IP-100,2013-09-30 18:28:00,
2013-09-30 14:33:00,64.0,50.0,29.51,SSW,202,5.0,9.0,60,0.00,,,0.00,Rainwise IP-100,2013-09-30 18:33:00,
2013-09-30 14:34:00,64.0,51.0,29.51,SW,225,5.0,9.0,63,0.00,,,0.00,Rainwise IP-100,2013-09-30 18:34:00,
2013-09-30 14:38:00,63.0,49.0,29.51,SW,225,4.0,10.0,60,0.00,,,0.00,Rainwise IP-100,2013-09-30 18:38:00,
2013-09-30 14:39:00,64.0,50.0,29.51,SSE,157,0.0,10.0,62,0.00,,,0.00,Rainwise IP-100,2013-09-30 18:39:00,
2013-09-30 14:43:00,64.0,53.0,29.51,SW,225,3.0,8.0,67,0.00,,,0.00,Rainwise IP-100,2013-09-30 18:43:00,
2013-09-30 14:44:00,64.0,50.0,29.51,South,180,4.0,7.0,62,0.00,,,0.00,Rainwise IP-100,2013-09-30 18:44:00,
2013-09-30 14:45:00,64.0,50.0,29.51,SSE,157,3.0,8.0,62,0.00,,,0.00,Rainwise IP-100,2013-09-30 18:45:00,
2013-09-30 14:48:00,64.0,50.0,29.51,South,180,5.0,8.0,61,0.00,,,0.00,Rainwise IP-100,2013-09-30 18:48:00,
2013-09-30 14:49:00,64.0,50.0,29.51,South,180,6.0,8.0,60,0.00,,,0.00,Rainwise IP-100,2013-09-30 18:49:00,
2013-09-30 14:50:00,64.0,49.0,29.51,SSW,202,8.0,8.0,59,0.00,,,0.00,Rainwise IP-100,2013-09-30 18:50:00,
2013-09-30 14:53:00,64.0,53.0,29.51,South,180,4.0,9.0,66,0.00,,,0.00,Rainwise IP-100,2013-09-30 18:53:00,
2013-09-30 14:54:00,64.0,53.0,29.51,SSE,157,3.0,9.0,66,0.00,,,0.00,Rainwise IP-100,2013-09-30 18:54:00,
2013-09-30 14:56:00,64.0,50.0,29.51,South,180,4.0,9.0,61,0.00,,,0.00,Rainwise IP-100,2013-09-30 18:56:00,
2013-09-30 14:58:00,65.0,54.0,29.51,South,180,3.0,6.0,69,0.00,,,0.00,Rainwise IP-100,2013-09-30 18:58:00,
2013-09-30 14:59:00,64.0,50.0,29.51,South,180,6.0,6.0,62,0.00,,,0.00,Rainwise IP-100,2013-09-30 18:59:00,
2013-09-30 15:00:00,64.0,50.0,29.51,SSW,202,6.0,7.0,62,0.00,,,0.00,Rainwise IP-100,2013-09-30 19:00:00,
2013-09-30 15:01:00,64.0,50.0,29.51,South,180,5.0,8.0,60,0.00,,,0.00,Rainwise IP-100,2013-09-30 19:01:00,
2013-09-30 15:03:00,64.0,50.0,29.51,South,180,8.0,8.0,62,0.00,,,0.00,Rainwise IP-100,2013-09-30 19:03:00,
2013-09-30 15:04:00,63.0,50.0,29.51,South,180,7.0,9.0,62,0.00,,,0.00,Rainwise IP-100,2013-09-30 19:04:00,
2013-09-30 15:05:00,63.0,50.0,29.51,SSW,202,7.0,9.0,62,0.00,,,0.00,Rainwise IP-100,2013-09-30 19:05:00,
2013-09-30 15:06:00,63.0,50.0,29.51,SW,225,7.0,9.0,62,0.00,,,0.00,Rainwise IP-100,2013-09-30 19:06:00,
2013-09-30 15:08:00,64.0,50.0,29.50,SSW,202,6.0,9.0,62,0.00,,,0.00,Rainwise IP-100,2013-09-30 19:08:00,
2013-09-30 15:10:00,63.0,50.0,29.50,SW,225,3.0,9.0,63,0.00,,,0.00,Rainwise IP-100,2013-09-30 19:10:00,
2013-09-30 15:11:00,64.0,52.0,29.50,SSW,202,8.0,9.0,65,0.00,,,0.00,Rainwise IP-100,2013-09-30 19:11:00,
2013-09-30 15:14:00,64.0,50.0,29.50,South,180,4.0,8.0,62,0.00,,,0.00,Rainwise IP-100,2013-09-30 19:14:00,
2013-09-30 15:15:00,64.0,50.0,29.50,ESE,112,3.0,8.0,62,0.00,,,0.00,Rainwise IP-100,2013-09-30 19:15:00,
2013-09-30 15:16:00,64.0,50.0,29.50,ESE,112,3.0,8.0,62,0.00,,,0.00,Rainwise IP-100,2013-09-30 19:16:00,
2013-09-30 15:17:00,64.0,51.0,29.50,South,180,3.0,8.0,64,0.00,,,0.00,Rainwise IP-100,2013-09-30 19:17:00,
2013-09-30 15:19:00,64.0,50.0,29.50,South,180,8.0,8.0,60,0.00,,,0.00,Rainwise IP-100,2013-09-30 19:19:00,
2013-09-30 15:20:00,64.0,49.0,29.50,South,180,7.0,9.0,59,0.00,,,0.00,Rainwise IP-100,2013-09-30 19:20:00,
2013-09-30 15:21:00,64.0,50.0,29.50,SSE,157,5.0,9.0,60,0.00,,,0.00,Rainwise IP-100,2013-09-30 19:21:00,
2013-09-30 15:22:00,63.0,49.0,29.50,SE,135,5.0,9.0,60,0.00,,,0.00,Rainwise IP-100,2013-09-30 19:22:00,
2013-09-30 15:24:00,63.0,52.0,29.50,SW,225,2.0,9.0,67,0.00,,,0.00,Rainwise IP-100,2013-09-30 19:24:00,
2013-09-30 15:25:00,63.0,50.0,29.50,ESE,112,5.0,8.0,62,0.00,,,0.00,Rainwise IP-100,2013-09-30 19:25:00,
2013-09-30 15:26:00,64.0,50.0,29.50,ESE,112,2.0,8.0,62,0.00,,,0.00,Rainwise IP-100,2013-09-30 19:26:00,
2013-09-30 15:27:00,64.0,53.0,29.50,SW,225,0.0,7.0,67,0.00,,,0.00,Rainwise IP-100,2013-09-30 19:27:00,
2013-09-30 15:28:00,64.0,53.0,29.50,SE,135,2.0,7.0,67,0.00,,,0.00,Rainwise IP-100,2013-09-30 19:28:00,
2013-09-30 15:30:00,65.0,51.0,29.50,SSE,157,5.0,7.0,61,0.00,,,0.00,Rainwise IP-100,2013-09-30 19:30:00,
2013-09-30 15:31:00,65.0,51.0,29.50,SSW,202,2.0,7.0,62,0.00,,,0.00,Rainwise IP-100,2013-09-30 19:31:00,
2013-09-30 15:32:00,64.0,49.0,29.50,SE,135,6.0,6.0,59,0.00,,,0.00,Rainwise IP-100,2013-09-30 19:32:00,
2013-09-30 15:33:00,64.0,49.0,29.50,SSE,157,6.0,7.0,58,0.00,,,0.00,Rainwise IP-100,2013-09-30 19:33:00,
2013-09-30 15:35:00,64.0,49.0,29.50,South,180,5.0,7.0,59,0.00,,,0.00,Rainwise IP-100,2013-09-30 19:35:00,
2013-09-30 15:36:00,64.0,49.0,29.50,South,180,4.0,7.0,59,0.00,,,0.00,Rainwise IP-100,2013-09-30 19:36:00,
2013-09-30 15:38:00,64.0,49.0,29.50,South,180,3.0,7.0,59,0.00,,,0.00,Rainwise IP-100,2013-09-30 19:38:00,
2013-09-30 15:40:00,64.0,49.0,29.50,SSE,157,4.0,7.0,59,0.00,,,0.00,Rainwise IP-100,2013-09-30 19:40:00,
2013-09-30 15:41:00,64.0,48.0,29.50,SE,135,5.0,7.0,57,0.00,,,0.00,Rainwise IP-100,2013-09-30 19:41:00,
2013-09-30 15:43:00,64.0,50.0,29.50,SSE,157,7.0,7.0,60,0.00,,,0.00,Rainwise IP-100,2013-09-30 19:43:00,
2013-09-30 15:45:00,64.0,49.0,29.50,South,180,4.0,8.0,59,0.00,,,0.00,Rainwise IP-100,2013-09-30 19:45:00,
2013-09-30 15:47:00,64.0,50.0,29.50,South,180,4.0,8.0,60,0.00,,,0.00,Rainwise IP-100,2013-09-30 19:47:00,
2013-09-30 15:48:00,64.0,48.0,29.50,SSW,202,5.0,8.0,57,0.00,,,0.00,Rainwise IP-100,2013-09-30 19:48:00,
2013-09-30 15:50:00,65.0,49.0,29.50,South,180,6.0,7.0,57,0.00,,,0.00,Rainwise IP-100,2013-09-30 19:50:00,
2013-09-30 15:52:00,65.0,52.0,29.50,SSW,202,1.0,7.0,63,0.00,,,0.00,Rainwise IP-100,2013-09-30 19:52:00,
2013-09-30 15:53:00,65.0,53.0,29.50,SSE,157,6.0,7.0,66,0.00,,,0.00,Rainwise IP-100,2013-09-30 19:53:00,
2013-09-30 15:55:00,65.0,49.0,29.50,SE,135,5.0,8.0,56,0.00,,,0.00,Rainwise IP-100,2013-09-30 19:55:00,
2013-09-30 15:57:00,65.0,49.0,29.50,SE,135,5.0,8.0,56,0.00,,,0.00,Rainwise IP-100,2013-09-30 19:57:00,
2013-09-30 15:58:00,65.0,49.0,29.49,South,180,2.0,8.0,56,0.00,,,0.00,Rainwise IP-100,2013-09-30 19:58:00,
2013-09-30 16:00:00,65.0,49.0,29.49,South,180,7.0,8.0,57,0.00,,,0.00,Rainwise IP-100,2013-09-30 20:00:00,
2013-09-30 16:01:00,64.0,48.0,29.49,SE,135,5.0,8.0,56,0.00,,,0.00,Rainwise IP-100,2013-09-30 20:01:00,
2013-09-30 16:02:00,64.0,48.0,29.49,ESE,112,3.0,7.0,56,0.00,,,0.00,Rainwise IP-100,2013-09-30 20:02:00,
2013-09-30 16:03:00,65.0,53.0,29.49,South,180,2.0,7.0,65,0.00,,,0.00,Rainwise IP-100,2013-09-30 20:03:00,
2013-09-30 16:05:00,65.0,51.0,29.49,SE,135,0.0,7.0,62,0.00,,,0.00,Rainwise IP-100,2013-09-30 20:05:00,
2013-09-30 16:06:00,65.0,53.0,29.49,South,180,4.0,6.0,65,0.00,,,0.00,Rainwise IP-100,2013-09-30 20:06:00,
2013-09-30 16:07:00,65.0,49.0,29.49,SSE,157,5.0,8.0,57,0.00,,,0.00,Rainwise IP-100,2013-09-30 20:07:00,
2013-09-30 16:09:00,65.0,48.0,29.49,South,180,6.0,8.0,55,0.00,,,0.00,Rainwise IP-100,2013-09-30 20:09:00,
2013-09-30 16:10:00,65.0,49.0,29.49,South,180,2.0,8.0,57,0.00,,,0.00,Rainwise IP-100,2013-09-30 20:10:00,
2013-09-30 16:11:00,65.0,49.0,29.49,South,180,7.0,8.0,57,0.00,,,0.00,Rainwise IP-100,2013-09-30 20:11:00,
2013-09-30 16:12:00,65.0,48.0,29.49,South,180,5.0,8.0,55,0.00,,,0.00,Rainwise IP-100,2013-09-30 20:12:00,
2013-09-30 16:14:00,65.0,49.0,29.49,South,180,6.0,8.0,57,0.00,,,0.00,Rainwise IP-100,2013-09-30 20:14:00,
2013-09-30 16:16:00,64.0,48.0,29.49,South,180,4.0,8.0,57,0.00,,,0.00,Rainwise IP-100,2013-09-30 20:16:00,
2013-09-30 16:17:00,64.0,48.0,29.49,South,180,6.0,8.0,57,0.00,,,0.00,Rainwise IP-100,2013-09-30 20:17:00,
2013-09-30 16:18:00,63.0,48.0,29.49,SSE,157,6.0,8.0,58,0.00,,,0.00,Rainwise IP-100,2013-09-30 20:18:00,
2013-09-30 16:19:00,63.0,48.0,29.49,South,180,8.0,8.0,59,0.00,,,0.00,Rainwise IP-100,2013-09-30 20:19:00,
2013-09-30 16:21:00,63.0,49.0,29.49,SSE,157,2.0,8.0,60,0.00,,,0.00,Rainwise IP-100,2013-09-30 20:21:00,
2013-09-30 16:22:00,63.0,49.0,29.49,South,180,2.0,8.0,61,0.00,,,0.00,Rainwise IP-100,2013-09-30 20:22:00,
2013-09-30 16:23:00,63.0,51.0,29.49,ENE,67,4.0,8.0,66,0.00,,,0.00,Rainwise IP-100,2013-09-30 20:23:00,
2013-09-30 16:24:00,63.0,52.0,29.49,NE,45,1.0,8.0,68,0.00,,,0.00,Rainwise IP-100,2013-09-30 20:24:00,
2013-09-30 16:26:00,63.0,51.0,29.49,ESE,112,5.0,6.0,66,0.00,,,0.00,Rainwise IP-100,2013-09-30 20:26:00,
2013-09-30 16:27:00,62.0,50.0,29.49,ESE,112,3.0,6.0,64,0.00,,,0.00,Rainwise IP-100,2013-09-30 20:27:00,
2013-09-30 16:28:00,62.0,51.0,29.49,SE,135,3.0,6.0,68,0.00,,,0.00,Rainwise IP-100,2013-09-30 20:28:00,
2013-09-30 16:30:00,62.0,50.0,29.48,NE,45,4.0,5.0,64,0.00,,,0.00,Rainwise IP-100,2013-09-30 20:30:00,
2013-09-30 16:31:00,62.0,50.0,29.48,SE,135,1.0,5.0,65,0.00,,,0.00,Rainwise IP-100,2013-09-30 20:31:00,
2013-09-30 16:32:00,62.0,50.0,29.48,SE,135,4.0,5.0,65,0.00,,,0.00,Rainwise IP-100,2013-09-30 20:32:00,
2013-09-30 16:33:00,62.0,50.0,29.48,SE,135,3.0,6.0,64,0.00,,,0.00,Rainwise IP-100,2013-09-30 20:33:00,
2013-09-30 16:35:00,62.0,50.0,29.48,East,90,5.0,6.0,65,0.00,,,0.00,Rainwise IP-100,2013-09-30 20:35:00,
2013-09-30 16:36:00,62.0,51.0,29.48,East,90,4.0,7.0,68,0.00,,,0.00,Rainwise IP-100,2013-09-30 20:36:00,
2013-09-30 16:38:00,62.0,53.0,29.48,East,90,1.0,7.0,71,0.00,,,0.00,Rainwise IP-100,2013-09-30 20:38:00,
2013-09-30 16:39:00,62.0,53.0,29.48,East,90,1.0,7.0,71,0.00,,,0.00,Rainwise IP-100,2013-09-30 20:39:00,
2013-09-30 16:40:00,62.0,52.0,29.48,SSE,157,4.0,7.0,69,0.00,,,0.00,Rainwise IP-100,2013-09-30 20:40:00,
2013-09-30 16:41:00,62.0,51.0,29.48,East,90,1.0,5.0,67,0.00,,,0.00,Rainwise IP-100,2013-09-30 20:41:00,
2013-09-30 16:44:00,62.0,51.0,29.48,SE,135,6.0,6.0,67,0.00,,,0.00,Rainwise IP-100,2013-09-30 20:44:00,
2013-09-30 16:45:00,62.0,51.0,29.48,SE,135,2.0,7.0,67,0.00,,,0.00,Rainwise IP-100,2013-09-30 20:45:00,
2013-09-30 16:46:00,62.0,51.0,29.48,SSE,157,1.0,7.0,67,0.00,,,0.00,Rainwise IP-100,2013-09-30 20:46:00,
2013-09-30 16:49:00,62.0,53.0,29.48,SE,135,2.0,6.0,72,0.00,,,0.00,Rainwise IP-100,2013-09-30 20:49:00,
2013-09-30 16:50:00,62.0,53.0,29.48,East,90,2.0,6.0,74,0.00,,,0.00,Rainwise IP-100,2013-09-30 20:50:00,
2013-09-30 16:51:00,62.0,53.0,29.48,SE,135,3.0,6.0,74,0.00,,,0.00,Rainwise IP-100,2013-09-30 20:51:00,
2013-09-30 16:54:00,62.0,51.0,29.48,SSE,157,5.0,5.0,67,0.00,,,0.00,Rainwise IP-100,2013-09-30 20:54:00,
2013-09-30 16:55:00,62.0,51.0,29.48,South,180,1.0,5.0,68,0.00,,,0.00,Rainwise IP-100,2013-09-30 20:55:00,
2013-09-30 16:57:00,61.0,50.0,29.48,SSE,157,3.0,6.0,69,0.00,,,0.00,Rainwise IP-100,2013-09-30 20:57:00,
2013-09-30 16:59:00,62.0,53.0,29.48,SSE,157,4.0,6.0,71,0.00,,,0.00,Rainwise IP-100,2013-09-30 20:59:00,
2013-09-30 17:00:00,61.0,51.0,29.48,South,180,4.0,6.0,70,0.00,,,0.00,Rainwise IP-100,2013-09-30 21:00:00,
2013-09-30 17:02:00,61.0,50.0,29.48,South,180,5.0,6.0,68,0.00,,,0.00,Rainwise IP-100,2013-09-30 21:02:00,
2013-09-30 17:04:00,61.0,50.0,29.48,South,180,6.0,7.0,67,0.00,,,0.00,Rainwise IP-100,2013-09-30 21:04:00,
2013-09-30 17:05:00,61.0,50.0,29.48,SE,135,4.0,7.0,68,0.00,,,0.00,Rainwise IP-100,2013-09-30 21:05:00,
2013-09-30 17:07:00,61.0,50.0,29.48,SE,135,4.0,7.0,69,0.00,,,0.00,Rainwise IP-100,2013-09-30 21:07:00,
2013-09-30 17:08:00,61.0,50.0,29.48,SE,135,5.0,7.0,69,0.00,,,0.00,Rainwise IP-100,2013-09-30 21:08:00,
2013-09-30 17:09:00,61.0,51.0,29.48,South,180,3.0,7.0,70,0.00,,,0.00,Rainwise IP-100,2013-09-30 21:09:00,
2013-09-30 17:10:00,61.0,51.0,29.48,South,180,2.0,6.0,70,0.00,,,0.00,Rainwise IP-100,2013-09-30 21:10:00,
2013-09-30 17:12:00,61.0,53.0,29.48,SSW,202,0.0,6.0,74,0.00,,,0.00,Rainwise IP-100,2013-09-30 21:12:00,
2013-09-30 17:13:00,61.0,53.0,29.48,SSW,202,2.0,6.0,74,0.00,,,0.00,Rainwise IP-100,2013-09-30 21:13:00,
2013-09-30 17:15:00,61.0,52.0,29.48,South,180,5.0,5.0,73,0.00,,,0.00,Rainwise IP-100,2013-09-30 21:15:00,
2013-09-30 17:16:00,61.0,52.0,29.48,South,180,4.0,7.0,72,0.00,,,0.00,Rainwise IP-100,2013-09-30 21:16:00,
2013-09-30 17:17:00,61.0,51.0,29.48,South,180,6.0,7.0,70,0.00,,,0.00,Rainwise IP-100,2013-09-30 21:17:00,
2013-09-30 17:18:00,61.0,51.0,29.48,South,180,4.0,7.0,70,0.00,,,0.00,Rainwise IP-100,2013-09-30 21:18:00,
2013-09-30 17:20:00,60.0,50.0,29.48,South,180,0.0,7.0,70,0.00,,,0.00,Rainwise IP-100,2013-09-30 21:20:00,
2013-09-30 17:21:00,60.0,50.0,29.48,SE,135,3.0,6.0,70,0.00,,,0.00,Rainwise IP-100,2013-09-30 21:21:00,
2013-09-30 17:23:00,60.0,52.0,29.48,ESE,112,0.0,6.0,75,0.00,,,0.00,Rainwise IP-100,2013-09-30 21:23:00,
2013-09-30 17:26:00,60.0,52.0,29.48,ESE,112,2.0,3.0,75,0.00,,,0.00,Rainwise IP-100,2013-09-30 21:26:00,
2013-09-30 17:27:00,60.0,52.0,29.48,ESE,112,3.0,3.0,75,0.00,,,0.00,Rainwise IP-100,2013-09-30 21:27:00,
2013-09-30 17:28:00,60.0,52.0,29.48,ESE,112,1.0,3.0,75,0.00,,,0.00,Rainwise IP-100,2013-09-30 21:28:00,
2013-09-30 17:32:00,60.0,53.0,29.48,ESE,112,0.0,4.0,77,0.00,,,0.00,Rainwise IP-100,2013-09-30 21:32:00,
2013-09-30 17:33:00,60.0,53.0,29.48,ESE,112,0.0,4.0,78,0.00,,,0.00,Rainwise IP-100,2013-09-30 21:33:00,
2013-09-30 17:34:00,60.0,53.0,29.48,ESE,112,1.0,4.0,79,0.00,,,0.00,Rainwise IP-100,2013-09-30 21:34:00,
2013-09-30 17:37:00,60.0,54.0,29.48,ESE,112,0.0,3.0,80,0.00,,,0.00,Rainwise IP-100,2013-09-30 21:37:00,
2013-09-30 17:39:00,60.0,54.0,29.47,ESE,112,0.0,3.0,80,0.00,,,0.00,Rainwise IP-100,2013-09-30 21:39:00,
2013-09-30 17:40:00,60.0,54.0,29.47,ESE,112,0.0,2.0,81,0.00,,,0.00,Rainwise IP-100,2013-09-30 21:40:00,
2013-09-30 17:42:00,60.0,54.0,29.47,ESE,112,2.0,3.0,80,0.00,,,0.00,Rainwise IP-100,2013-09-30 21:42:00,
2013-09-30 17:44:00,60.0,54.0,29.47,ESE,112,2.0,3.0,80,0.00,,,0.00,Rainwise IP-100,2013-09-30 21:44:00,
2013-09-30 17:46:00,60.0,54.0,29.47,ESE,112,0.0,3.0,81,0.00,,,0.00,Rainwise IP-100,2013-09-30 21:46:00,
2013-09-30 17:47:00,60.0,54.0,29.47,ESE,112,1.0,3.0,80,0.00,,,0.00,Rainwise IP-100,2013-09-30 21:47:00,
2013-09-30 17:49:00,61.0,54.0,29.48,ESE,112,0.0,3.0,80,0.00,,,0.00,Rainwise IP-100,2013-09-30 21:49:00,
2013-09-30 17:51:00,60.0,54.0,29.48,ESE,112,2.0,3.0,80,0.00,,,0.00,Rainwise IP-100,2013-09-30 21:51:00,
2013-09-30 17:52:00,60.0,54.0,29.48,ESE,112,2.0,3.0,80,0.00,,,0.00,Rainwise IP-100,2013-09-30 21:52:00,
2013-09-30 17:54:00,60.0,54.0,29.48,ESE,112,0.0,3.0,80,0.00,,,0.00,Rainwise IP-100,2013-09-30 21:54:00,
2013-09-30 17:55:00,60.0,54.0,29.48,ESE,112,0.0,3.0,80,0.00,,,0.00,Rainwise IP-100,2013-09-30 21:55:00,
2013-09-30 17:57:00,60.0,54.0,29.48,ESE,112,1.0,3.0,80,0.00,,,0.00,Rainwise IP-100,2013-09-30 21:57:00,
2013-09-30 17:58:00,60.0,54.0,29.48,ESE,112,0.0,2.0,80,0.00,,,0.00,Rainwise IP-100,2013-09-30 21:58:00,
2013-09-30 18:00:00,60.0,54.0,29.47,ESE,112,0.0,2.0,80,0.00,,,0.00,Rainwise IP-100,2013-09-30 22:00:00,
2013-09-30 18:02:00,60.0,54.0,29.47,ESE,112,0.0,2.0,81,0.00,,,0.00,Rainwise IP-100,2013-09-30 22:02:00,
2013-09-30 18:03:00,60.0,54.0,29.47,ESE,112,0.0,0.0,81,0.00,,,0.00,Rainwise IP-100,2013-09-30 22:03:00,
2013-09-30 18:05:00,59.0,53.0,29.47,ESE,112,0.0,0.0,82,0.00,,,0.00,Rainwise IP-100,2013-09-30 22:05:00,
2013-09-30 18:06:00,59.0,53.0,29.47,ESE,112,0.0,0.0,82,0.00,,,0.00,Rainwise IP-100,2013-09-30 22:06:00,
2013-09-30 18:07:00,59.0,53.0,29.47,ESE,112,0.0,0.0,82,0.00,,,0.00,Rainwise IP-100,2013-09-30 22:07:00,
2013-09-30 18:08:00,59.0,53.0,29.47,ESE,112,0.0,0.0,82,0.00,,,0.00,Rainwise IP-100,2013-09-30 22:08:00,
2013-09-30 18:10:00,59.0,54.0,29.47,ESE,112,0.0,0.0,83,0.00,,,0.00,Rainwise IP-100,2013-09-30 22:10:00,
2013-09-30 18:11:00,59.0,54.0,29.47,ESE,112,0.0,0.0,84,0.00,,,0.00,Rainwise IP-100,2013-09-30 22:11:00,
2013-09-30 18:12:00,58.0,53.0,29.47,ESE,112,0.0,0.0,83,0.00,,,0.00,Rainwise IP-100,2013-09-30 22:12:00,
2013-09-30 18:13:00,58.0,53.0,29.47,ESE,112,0.0,0.0,83,0.00,,,0.00,Rainwise IP-100,2013-09-30 22:13:00,
2013-09-30 18:14:00,58.0,53.0,29.47,ESE,112,0.0,0.0,83,0.00,,,0.00,Rainwise IP-100,2013-09-30 22:14:00,
2013-09-30 18:15:00,58.0,53.0,29.47,ESE,112,0.0,0.0,84,0.00,,,0.00,Rainwise IP-100,2013-09-30 22:15:00,
2013-09-30 18:17:00,58.0,53.0,29.47,ESE,112,0.0,0.0,84,0.00,,,0.00,Rainwise IP-100,2013-09-30 22:17:00,
2013-09-30 18:18:00,57.0,52.0,29.47,ESE,112,0.0,0.0,84,0.00,,,0.00,Rainwise IP-100,2013-09-30 22:18:00,
2013-09-30 18:19:00,58.0,53.0,29.46,ESE,112,0.0,0.0,84,0.00,,,0.00,Rainwise IP-100,2013-09-30 22:19:00,
2013-09-30 18:20:00,58.0,53.0,29.46,ESE,112,0.0,0.0,84,0.00,,,0.00,Rainwise IP-100,2013-09-30 22:20:00,
2013-09-30 18:23:00,57.0,53.0,29.46,ESE,112,0.0,0.0,86,0.00,,,0.00,Rainwise IP-100,2013-09-30 22:23:00,
2013-09-30 18:25:00,56.0,52.0,29.46,ESE,112,0.0,0.0,86,0.00,,,0.00,Rainwise IP-100,2013-09-30 22:25:00,
2013-09-30 18:28:00,56.0,52.0,29.46,ESE,112,0.0,0.0,87,0.00,,,0.00,Rainwise IP-100,2013-09-30 22:28:00,
2013-09-30 18:29:00,56.0,52.0,29.45,ESE,112,0.0,0.0,86,0.00,,,0.00,Rainwise IP-100,2013-09-30 22:29:00,
2013-09-30 18:30:00,56.0,53.0,29.45,ESE,112,0.0,0.0,88,0.00,,,0.00,Rainwise IP-100,2013-09-30 22:30:00,
2013-09-30 18:33:00,55.0,52.0,29.45,ESE,112,0.0,0.0,88,0.00,,,0.00,Rainwise IP-100,2013-09-30 22:33:00,
2013-09-30 18:34:00,55.0,52.0,29.45,ESE,112,0.0,0.0,88,0.00,,,0.00,Rainwise IP-100,2013-09-30 22:34:00,
2013-09-30 18:35:00,55.0,52.0,29.45,ESE,112,0.0,0.0,88,0.00,,,0.00,Rainwise IP-100,2013-09-30 22:35:00,
2013-09-30 18:38:00,55.0,52.0,29.45,ESE,112,0.0,0.0,89,0.00,,,0.00,Rainwise IP-100,2013-09-30 22:38:00,
2013-09-30 18:39:00,55.0,52.0,29.45,ESE,112,0.0,0.0,88,0.00,,,0.00,Rainwise IP-100,2013-09-30 22:39:00,
2013-09-30 18:40:00,54.0,50.0,29.45,ESE,112,0.0,0.0,89,0.00,,,0.00,Rainwise IP-100,2013-09-30 22:40:00,
2013-09-30 18:41:00,54.0,50.0,29.45,ESE,112,0.0,0.0,89,0.00,,,0.00,Rainwise IP-100,2013-09-30 22:41:00,
2013-09-30 18:43:00,54.0,51.0,29.45,ESE,112,0.0,0.0,90,0.00,,,0.00,Rainwise IP-100,2013-09-30 22:43:00,
2013-09-30 18:44:00,54.0,51.0,29.45,ESE,112,0.0,0.0,90,0.00,,,0.00,Rainwise IP-100,2013-09-30 22:44:00,
2013-09-30 18:45:00,54.0,51.0,29.45,ESE,112,0.0,0.0,90,0.00,,,0.00,Rainwise IP-100,2013-09-30 22:45:00,
2013-09-30 18:46:00,54.0,51.0,29.45,ESE,112,0.0,0.0,90,0.00,,,0.00,Rainwise IP-100,2013-09-30 22:46:00,
2013-09-30 18:48:00,54.0,50.0,29.45,ESE,112,0.0,0.0,89,0.00,,,0.00,Rainwise IP-100,2013-09-30 22:48:00,
2013-09-30 18:49:00,53.0,49.0,29.45,ESE,112,0.0,0.0,88,0.00,,,0.00,Rainwise IP-100,2013-09-30 22:49:00,
2013-09-30 18:51:00,53.0,50.0,29.45,ESE,112,0.0,0.0,89,0.00,,,0.00,Rainwise IP-100,2013-09-30 22:51:00,
2013-09-30 18:52:00,53.0,50.0,29.45,ESE,112,0.0,0.0,89,0.00,,,0.00,Rainwise IP-100,2013-09-30 22:52:00,
2013-09-30 18:53:00,53.0,50.0,29.45,ESE,112,0.0,0.0,89,0.00,,,0.00,Rainwise IP-100,2013-09-30 22:53:00,
2013-09-30 18:54:00,53.0,50.0,29.45,ESE,112,0.0,0.0,89,0.00,,,0.00,Rainwise IP-100,2013-09-30 22:54:00,
2013-09-30 18:56:00,52.0,49.0,29.45,ESE,112,0.0,0.0,89,0.00,,,0.00,Rainwise IP-100,2013-09-30 22:56:00,
2013-09-30 18:57:00,52.0,49.0,29.45,ESE,112,0.0,0.0,89,0.00,,,0.00,Rainwise IP-100,2013-09-30 22:57:00,
2013-09-30 18:58:00,52.0,49.0,29.44,ESE,112,0.0,0.0,89,0.00,,,0.00,Rainwise IP-100,2013-09-30 22:58:00,
2013-09-30 18:59:00,52.0,49.0,29.44,ESE,112,0.0,0.0,90,0.00,,,0.00,Rainwise IP-100,2013-09-30 22:59:00,
2013-09-30 19:01:00,52.0,49.0,29.44,ESE,112,0.0,0.0,90,0.00,,,0.00,Rainwise IP-100,2013-09-30 23:01:00,
2013-09-30 19:02:00,52.0,49.0,29.44,ESE,112,0.0,0.0,90,0.00,,,0.00,Rainwise IP-100,2013-09-30 23:02:00,
2013-09-30 19:04:00,52.0,49.0,29.44,ESE,112,0.0,0.0,90,0.00,,,0.00,Rainwise IP-100,2013-09-30 23:04:00,
2013-09-30 19:05:00,52.0,49.0,29.44,ESE,112,0.0,0.0,90,0.00,,,0.00,Rainwise IP-100,2013-09-30 23:05:00,
2013-09-30 19:07:00,52.0,49.0,29.44,ESE,112,0.0,0.0,90,0.00,,,0.00,Rainwise IP-100,2013-09-30 23:07:00,
2013-09-30 19:08:00,52.0,49.0,29.44,ESE,112,0.0,0.0,90,0.00,,,0.00,Rainwise IP-100,2013-09-30 23:08:00,
2013-09-30 19:09:00,52.0,49.0,29.44,ESE,112,0.0,0.0,90,0.00,,,0.00,Rainwise IP-100,2013-09-30 23:09:00,
2013-09-30 19:10:00,52.0,49.0,29.44,ESE,112,0.0,0.0,90,0.00,,,0.00,Rainwise IP-100,2013-09-30 23:10:00,
2013-09-30 19:12:00,52.0,49.0,29.44,ESE,112,0.0,0.0,90,0.00,,,0.00,Rainwise IP-100,2013-09-30 23:12:00,
2013-09-30 19:13:00,52.0,49.0,29.44,ESE,112,0.0,0.0,90,0.00,,,0.00,Rainwise IP-100,2013-09-30 23:13:00,
2013-09-30 19:14:00,52.0,49.0,29.44,ESE,112,0.0,0.0,90,0.00,,,0.00,Rainwise IP-100,2013-09-30 23:14:00,
2013-09-30 19:15:00,52.0,49.0,29.44,ESE,112,0.0,0.0,90,0.00,,,0.00,Rainwise IP-100,2013-09-30 23:15:00,
2013-09-30 19:17:00,52.0,49.0,29.44,ESE,112,0.0,0.0,90,0.00,,,0.00,Rainwise IP-100,2013-09-30 23:17:00,
2013-09-30 19:34:00,52.0,49.0,29.44,ESE,112,0.0,0.0,90,0.00,,,0.00,Rainwise IP-100,2013-09-30 23:34:00,
2013-09-30 19:35:00,50.0,48.0,29.43,ESE,112,0.0,0.0,94,0.00,,,0.00,Rainwise IP-100,2013-09-30 23:35:00,
2013-09-30 19:39:00,50.0,48.0,29.43,ESE,112,0.0,0.0,94,0.00,,,0.00,Rainwise IP-100,2013-09-30 23:39:00,
2013-09-30 19:40:00,50.0,48.0,29.43,ESE,112,0.0,0.0,94,0.00,,,0.00,Rainwise IP-100,2013-09-30 23:40:00,
2013-09-30 19:44:00,50.0,48.0,29.43,ESE,112,0.0,0.0,94,0.00,,,0.00,Rainwise IP-100,2013-09-30 23:44:00,
2013-09-30 19:45:00,50.0,48.0,29.43,ESE,112,0.0,0.0,94,0.00,,,0.00,Rainwise IP-100,2013-09-30 23:45:00,
2013-09-30 20:03:00,51.0,50.0,29.42,SW,225,0.0,0.0,96,0.00,,,0.00,Rainwise IP-100,2013-10-01 00:03:00,
2013-09-30 20:04:00,51.0,50.0,29.42,SW,225,0.0,0.0,96,0.00,,,0.00,Rainwise IP-100,2013-10-01 00:04:00,
2013-09-30 20:08:00,51.0,50.0,29.42,West,270,0.0,4.0,96,0.00,,,0.00,Rainwise IP-100,2013-10-01 00:08:00,
2013-09-30 20:09:00,51.0,50.0,29.42,West,270,0.0,4.0,96,0.00,,,0.00,Rainwise IP-100,2013-10-01 00:09:00,
2013-09-30 20:11:00,51.0,50.0,29.42,West,270,0.0,4.0,96,0.00,,,0.00,Rainwise IP-100,2013-10-01 00:11:00,
2013-09-30 20:13:00,51.0,50.0,29.42,West,270,0.0,2.0,96,0.00,,,0.00,Rainwise IP-100,2013-10-01 00:13:00,
2013-09-30 20:14:00,51.0,50.0,29.42,West,270,0.0,0.0,96,0.00,,,0.00,Rainwise IP-100,2013-10-01 00:14:00,
2013-09-30 20:16:00,51.0,50.0,29.42,West,270,0.0,0.0,96,0.00,,,0.00,Rainwise IP-100,2013-10-01 00:16:00,
2013-09-30 20:19:00,51.0,50.0,29.42,West,270,0.0,0.0,95,0.00,,,0.00,Rainwise IP-100,2013-10-01 00:19:00,
2013-09-30 20:20:00,51.0,50.0,29.42,West,270,0.0,0.0,96,0.00,,,0.00,Rainwise IP-100,2013-10-01 00:20:00,
2013-09-30 20:21:00,51.0,50.0,29.42,West,270,2.0,0.0,96,0.00,,,0.00,Rainwise IP-100,2013-10-01 00:21:00,
2013-09-30 20:24:00,51.0,50.0,29.42,West,270,0.0,2.0,96,0.00,,,0.00,Rainwise IP-100,2013-10-01 00:24:00,
2013-09-30 20:25:00,51.0,50.0,29.42,West,270,2.0,2.0,97,0.00,,,0.00,Rainwise IP-100,2013-10-01 00:25:00,
2013-09-30 20:26:00,51.0,50.0,29.42,West,270,0.0,2.0,97,0.00,,,0.00,Rainwise IP-100,2013-10-01 00:26:00,
2013-09-30 20:29:00,51.0,50.0,29.41,West,270,0.0,3.0,97,0.00,,,0.00,Rainwise IP-100,2013-10-01 00:29:00,
2013-09-30 20:30:00,51.0,50.0,29.41,West,270,0.0,3.0,97,0.00,,,0.00,Rainwise IP-100,2013-10-01 00:30:00,
2013-09-30 20:31:00,51.0,50.0,29.41,West,270,0.0,3.0,97,0.00,,,0.00,Rainwise IP-100,2013-10-01 00:31:00,
2013-09-30 20:32:00,51.0,50.0,29.41,West,270,0.0,3.0,97,0.00,,,0.00,Rainwise IP-100,2013-10-01 00:32:00,
2013-09-30 20:34:00,51.0,50.0,29.41,West,270,0.0,1.0,97,0.00,,,0.00,Rainwise IP-100,2013-10-01 00:34:00,
2013-09-30 20:35:00,51.0,50.0,29.41,West,270,0.0,0.0,97,0.00,,,0.00,Rainwise IP-100,2013-10-01 00:35:00,
2013-09-30 20:36:00,51.0,50.0,29.41,West,270,0.0,0.0,97,0.00,,,0.00,Rainwise IP-100,2013-10-01 00:36:00,
2013-09-30 20:37:00,51.0,50.0,29.41,West,270,0.0,0.0,97,0.00,,,0.00,Rainwise IP-100,2013-10-01 00:37:00,
2013-09-30 20:39:00,51.0,50.0,29.42,West,270,0.0,0.0,97,0.00,,,0.00,Rainwise IP-100,2013-10-01 00:39:00,
2013-09-30 20:40:00,51.0,50.0,29.42,West,270,0.0,0.0,97,0.00,,,0.00,Rainwise IP-100,2013-10-01 00:40:00,
2013-09-30 20:41:00,51.0,50.0,29.42,West,270,0.0,0.0,97,0.00,,,0.00,Rainwise IP-100,2013-10-01 00:41:00,
2013-09-30 20:42:00,51.0,50.0,29.42,West,270,0.0,0.0,97,0.00,,,0.00,Rainwise IP-100,2013-10-01 00:42:00,
2013-09-30 20:43:00,52.0,51.0,29.42,West,270,0.0,0.0,97,0.00,,,0.00,Rainwise IP-100,2013-10-01 00:43:00,
2013-09-30 20:45:00,52.0,51.0,29.42,West,270,0.0,0.0,97,0.00,,,0.00,Rainwise IP-100,2013-10-01 00:45:00,
2013-09-30 20:46:00,52.0,51.0,29.42,West,270,0.0,0.0,97,0.00,,,0.00,Rainwise IP-100,2013-10-01 00:46:00,
2013-09-30 20:47:00,52.0,51.0,29.42,West,270,0.0,0.0,97,0.00,,,0.00,Rainwise IP-100,2013-10-01 00:47:00,
2013-09-30 20:49:00,52.0,50.0,29.43,West,270,0.0,0.0,96,0.00,,,0.00,Rainwise IP-100,2013-10-01 00:49:00,
2013-09-30 20:50:00,52.0,50.0,29.43,West,270,0.0,0.0,96,0.00,,,0.00,Rainwise IP-100,2013-10-01 00:50:00,
2013-09-30 20:51:00,52.0,50.0,29.43,West,270,0.0,0.0,96,0.00,,,0.00,Rainwise IP-100,2013-10-01 00:51:00,
2013-09-30 20:52:00,52.0,51.0,29.43,West,270,0.0,0.0,97,0.00,,,0.00,Rainwise IP-100,2013-10-01 00:52:00,
2013-09-30 20:54:00,52.0,51.0,29.43,West,270,0.0,0.0,97,0.00,,,0.00,Rainwise IP-100,2013-10-01 00:54:00,
2013-09-30 20:55:00,52.0,51.0,29.43,West,270,0.0,0.0,97,0.00,,,0.00,Rainwise IP-100,2013-10-01 00:55:00,
2013-09-30 20:56:00,52.0,51.0,29.43,West,270,0.0,0.0,97,0.00,,,0.00,Rainwise IP-100,2013-10-01 00:56:00,
2013-09-30 20:57:00,52.0,51.0,29.43,West,270,0.0,0.0,97,0.00,,,0.00,Rainwise IP-100,2013-10-01 00:57:00,
2013-09-30 20:59:00,52.0,50.0,29.43,West,270,0.0,0.0,96,0.00,,,0.00,Rainwise IP-100,2013-10-01 00:59:00,
2013-09-30 21:00:00,52.0,51.0,29.43,West,270,0.0,0.0,97,0.00,,,0.00,Rainwise IP-100,2013-10-01 01:00:00,
2013-09-30 21:01:00,52.0,51.0,29.43,West,270,0.0,0.0,97,0.00,,,0.00,Rainwise IP-100,2013-10-01 01:01:00,
2013-09-30 21:02:00,52.0,51.0,29.43,West,270,0.0,0.0,97,0.00,,,0.00,Rainwise IP-100,2013-10-01 01:02:00,
2013-09-30 21:03:00,52.0,51.0,29.43,West,270,0.0,0.0,97,0.00,,,0.00,Rainwise IP-100,2013-10-01 01:03:00,
2013-09-30 21:04:00,52.0,51.0,29.43,West,270,0.0,0.0,97,0.00,,,0.00,Rainwise IP-100,2013-10-01 01:04:00,
2013-09-30 21:05:00,52.0,51.0,29.43,West,270,0.0,0.0,97,0.00,,,0.00,Rainwise IP-100,2013-10-01 01:05:00,
2013-09-30 21:06:00,52.0,51.0,29.43,West,270,0.0,0.0,97,0.00,,,0.00,Rainwise IP-100,2013-10-01 01:06:00,
2013-09-30 21:07:00,52.0,51.0,29.43,West,270,0.0,0.0,97,0.00,,,0.00,Rainwise IP-100,2013-10-01 01:07:00,
2013-09-30 21:08:00,52.0,51.0,29.43,West,270,0.0,0.0,97,0.00,,,0.00,Rainwise IP-100,2013-10-01 01:08:00,
2013-09-30 21:09:00,52.0,51.0,29.43,West,270,0.0,0.0,97,0.00,,,0.00,Rainwise IP-100,2013-10-01 01:09:00,
2013-09-30 21:10:00,52.0,51.0,29.43,West,270,0.0,0.0,97,0.00,,,0.00,Rainwise IP-100,2013-10-01 01:10:00,
2013-09-30 21:11:00,52.0,51.0,29.43,West,270,0.0,0.0,97,0.00,,,0.00,Rainwise IP-100,2013-10-01 01:11:00,
2013-09-30 21:13:00,52.0,51.0,29.43,West,270,0.0,0.0,97,0.00,,,0.00,Rainwise IP-100,2013-10-01 01:13:00,
2013-09-30 21:14:00,52.0,51.0,29.43,West,270,0.0,0.0,97,0.00,,,0.00,Rainwise IP-100,2013-10-01 01:14:00,
2013-09-30 21:15:00,52.0,51.0,29.43,West,270,0.0,0.0,97,0.00,,,0.00,Rainwise IP-100,2013-10-01 01:15:00,
2013-09-30 21:16:00,52.0,51.0,29.43,West,270,0.0,0.0,97,0.00,,,0.00,Rainwise IP-100,2013-10-01 01:16:00,
2013-09-30 21:18:00,52.0,51.0,29.43,West,270,0.0,0.0,97,0.00,,,0.00,Rainwise IP-100,2013-10-01 01:18:00,
2013-09-30 21:20:00,52.0,51.0,29.43,West,270,0.0,0.0,97,0.00,,,0.00,Rainwise IP-100,2013-10-01 01:20:00,
2013-09-30 21:21:00,52.0,51.0,29.43,West,270,0.0,0.0,97,0.00,,,0.00,Rainwise IP-100,2013-10-01 01:21:00,
2013-09-30 21:23:00,52.0,51.0,29.43,West,270,0.0,0.0,97,0.00,,,0.00,Rainwise IP-100,2013-10-01 01:23:00,
2013-09-30 21:26:00,52.0,51.0,29.43,West,270,0.0,0.0,97,0.00,,,0.00,Rainwise IP-100,2013-10-01 01:26:00,
2013-09-30 21:28:00,52.0,51.0,29.43,West,270,0.0,0.0,97,0.00,,,0.00,Rainwise IP-100,2013-10-01 01:28:00,
2013-09-30 21:29:00,52.0,51.0,29.43,West,270,0.0,0.0,97,0.00,,,0.00,Rainwise IP-100,2013-10-01 01:29:00,
2013-09-30 21:31:00,52.0,51.0,29.43,West,270,0.0,0.0,97,0.00,,,0.00,Rainwise IP-100,2013-10-01 01:31:00,
2013-09-30 21:32:00,52.0,51.0,29.43,West,270,0.0,0.0,97,0.00,,,0.00,Rainwise IP-100,2013-10-01 01:32:00,
2013-09-30 21:33:00,52.0,51.0,29.43,West,270,0.0,0.0,97,0.00,,,0.00,Rainwise IP-100,2013-10-01 01:33:00,
2013-09-30 21:34:00,52.0,51.0,29.43,West,270,0.0,0.0,97,0.00,,,0.00,Rainwise IP-100,2013-10-01 01:34:00,
2013-09-30 21:36:00,52.0,51.0,29.43,West,270,0.0,0.0,97,0.00,,,0.00,Rainwise IP-100,2013-10-01 01:36:00,
2013-09-30 21:37:00,52.0,51.0,29.43,West,270,0.0,0.0,97,0.00,,,0.00,Rainwise IP-100,2013-10-01 01:37:00,
2013-09-30 21:38:00,52.0,51.0,29.43,West,270,0.0,0.0,97,0.00,,,0.00,Rainwise IP-100,2013-10-01 01:38:00,
2013-09-30 21:39:00,52.0,51.0,29.43,West,270,0.0,0.0,97,0.00,,,0.00,Rainwise IP-100,2013-10-01 01:39:00,
2013-09-30 21:42:00,52.0,51.0,29.43,West,270,0.0,0.0,97,0.00,,,0.00,Rainwise IP-100,2013-10-01 01:42:00,
2013-09-30 21:43:00,52.0,51.0,29.43,West,270,0.0,0.0,97,0.00,,,0.00,Rainwise IP-100,2013-10-01 01:43:00,
2013-09-30 21:44:00,51.0,50.0,29.43,West,270,0.0,0.0,97,0.00,,,0.00,Rainwise IP-100,2013-10-01 01:44:00,
2013-09-30 21:47:00,51.0,50.0,29.43,West,270,0.0,0.0,97,0.00,,,0.00,Rainwise IP-100,2013-10-01 01:47:00,
2013-09-30 21:48:00,51.0,50.0,29.43,West,270,0.0,0.0,97,0.00,,,0.00,Rainwise IP-100,2013-10-01 01:48:00,
2013-09-30 21:49:00,52.0,51.0,29.43,West,270,0.0,0.0,97,0.00,,,0.00,Rainwise IP-100,2013-10-01 01:49:00,
2013-09-30 21:50:00,51.0,50.0,29.43,West,270,0.0,0.0,97,0.00,,,0.00,Rainwise IP-100,2013-10-01 01:50:00,
2013-09-30 21:52:00,51.0,50.0,29.43,West,270,0.0,0.0,97,0.00,,,0.00,Rainwise IP-100,2013-10-01 01:52:00,
2013-09-30 21:54:00,51.0,50.0,29.43,West,270,0.0,0.0,97,0.00,,,0.00,Rainwise IP-100,2013-10-01 01:54:00,
2013-09-30 21:55:00,51.0,50.0,29.43,West,270,0.0,0.0,97,0.00,,,0.00,Rainwise IP-100,2013-10-01 01:55:00,
2013-09-30 21:57:00,51.0,50.0,29.43,West,270,0.0,0.0,97,0.00,,,0.00,Rainwise IP-100,2013-10-01 01:57:00,
2013-09-30 21:59:00,52.0,51.0,29.43,West,270,0.0,0.0,97,0.00,,,0.00,Rainwise IP-100,2013-10-01 01:59:00,
2013-09-30 22:00:00,51.0,50.0,29.43,West,270,0.0,0.0,97,0.00,,,0.00,Rainwise IP-100,2013-10-01 02:00:00,
2013-09-30 22:02:00,51.0,50.0,29.43,West,270,0.0,0.0,97,0.00,,,0.00,Rainwise IP-100,2013-10-01 02:02:00,
2013-09-30 22:04:00,51.0,50.0,29.43,West,270,0.0,0.0,97,0.00,,,0.00,Rainwise IP-100,2013-10-01 02:04:00,
2013-09-30 22:06:00,51.0,50.0,29.43,SSE,157,4.0,4.0,97,0.00,,,0.00,Rainwise IP-100,2013-10-01 02:06:00,
2013-09-30 22:07:00,52.0,51.0,29.43,SSE,157,5.0,5.0,97,0.00,,,0.00,Rainwise IP-100,2013-10-01 02:07:00,
2013-09-30 22:08:00,52.0,51.0,29.43,SSE,157,5.0,5.0,97,0.00,,,0.00,Rainwise IP-100,2013-10-01 02:08:00,
2013-09-30 22:09:00,52.0,51.0,29.43,SSE,157,4.0,5.0,97,0.00,,,0.00,Rainwise IP-100,2013-10-01 02:09:00,
2013-09-30 22:11:00,52.0,51.0,29.43,SE,135,3.0,5.0,97,0.00,,,0.00,Rainwise IP-100,2013-10-01 02:11:00,
2013-09-30 22:12:00,52.0,51.0,29.43,ESE,112,3.0,5.0,97,0.00,,,0.00,Rainwise IP-100,2013-10-01 02:12:00,
2013-09-30 22:13:00,52.0,51.0,29.43,ESE,112,0.0,5.0,97,0.00,,,0.00,Rainwise IP-100,2013-10-01 02:13:00,
2013-09-30 22:14:00,52.0,51.0,29.43,ESE,112,0.0,5.0,97,0.00,,,0.00,Rainwise IP-100,2013-10-01 02:14:00,
2013-09-30 22:15:00,52.0,51.0,29.43,ESE,112,1.0,5.0,97,0.00,,,0.00,Rainwise IP-100,2013-10-01 02:15:00,
2013-09-30 22:17:00,52.0,51.0,29.43,ESE,112,0.0,4.0,97,0.00,,,0.00,Rainwise IP-100,2013-10-01 02:17:00,
2013-09-30 22:19:00,52.0,51.0,29.44,ESE,112,2.0,2.0,97,0.00,,,0.00,Rainwise IP-100,2013-10-01 02:19:00,
2013-09-30 22:21:00,52.0,51.0,29.44,ESE,112,2.0,3.0,98,0.00,,,0.00,Rainwise IP-100,2013-10-01 02:21:00,
2013-09-30 22:22:00,52.0,51.0,29.44,ESE,112,0.0,3.0,98,0.00,,,0.00,Rainwise IP-100,2013-10-01 02:22:00,
2013-09-30 22:24:00,52.0,51.0,29.44,ESE,112,0.0,3.0,98,0.00,,,0.00,Rainwise IP-100,2013-10-01 02:24:00,
2013-09-30 22:26:00,52.0,51.0,29.44,ESE,112,0.0,2.0,98,0.00,,,0.00,Rainwise IP-100,2013-10-01 02:26:00,
2013-09-30 22:27:00,52.0,51.0,29.44,ESE,112,0.0,1.0,98,0.00,,,0.00,Rainwise IP-100,2013-10-01 02:27:00,
2013-09-30 22:28:00,52.0,51.0,29.43,ESE,112,0.0,0.0,97,0.00,,,0.00,Rainwise IP-100,2013-10-01 02:28:00,
2013-09-30 22:29:00,52.0,51.0,29.43,ESE,112,0.0,0.0,97,0.00,,,0.00,Rainwise IP-100,2013-10-01 02:29:00,
2013-09-30 22:31:00,52.0,51.0,29.43,ESE,112,0.0,0.0,98,0.00,,,0.00,Rainwise IP-100,2013-10-01 02:31:00,
2013-09-30 22:32:00,52.0,51.0,29.43,ESE,112,0.0,0.0,98,0.00,,,0.00,Rainwise IP-100,2013-10-01 02:32:00,
2013-09-30 22:34:00,52.0,51.0,29.43,ESE,112,0.0,0.0,98,0.00,,,0.00,Rainwise IP-100,2013-10-01 02:34:00,
2013-09-30 22:35:00,52.0,51.0,29.43,ESE,112,0.0,0.0,98,0.00,,,0.00,Rainwise IP-100,2013-10-01 02:35:00,
2013-09-30 22:36:00,52.0,51.0,29.43,ESE,112,0.0,0.0,98,0.00,,,0.00,Rainwise IP-100,2013-10-01 02:36:00,
2013-09-30 22:38:00,52.0,51.0,29.43,ESE,112,0.0,0.0,98,0.00,,,0.00,Rainwise IP-100,2013-10-01 02:38:00,
2013-09-30 22:40:00,52.0,51.0,29.43,ESE,112,0.0,0.0,98,0.00,,,0.00,Rainwise IP-100,2013-10-01 02:40:00,
2013-09-30 22:41:00,52.0,51.0,29.43,ESE,112,0.0,0.0,98,0.00,,,0.00,Rainwise IP-100,2013-10-01 02:41:00,
2013-09-30 22:43:00,52.0,51.0,29.43,ESE,112,0.0,0.0,98,0.00,,,0.00,Rainwise IP-100,2013-10-01 02:43:00,
2013-09-30 22:45:00,52.0,51.0,29.43,ESE,112,0.0,0.0,98,0.00,,,0.00,Rainwise IP-100,2013-10-01 02:45:00,
2013-09-30 22:47:00,52.0,51.0,29.43,ESE,112,0.0,0.0,98,0.00,,,0.00,Rainwise IP-100,2013-10-01 02:47:00,
2013-09-30 22:48:00,52.0,51.0,29.43,ESE,112,0.0,0.0,98,0.00,,,0.00,Rainwise IP-100,2013-10-01 02:48:00,
2013-09-30 22:50:00,52.0,51.0,29.42,ESE,112,0.0,0.0,98,0.00,,,0.00,Rainwise IP-100,2013-10-01 02:50:00,
2013-09-30 22:52:00,52.0,51.0,29.42,WSW,247,0.0,3.0,98,0.00,,,0.00,Rainwise IP-100,2013-10-01 02:52:00,
2013-09-30 22:53:00,52.0,51.0,29.42,WSW,247,0.0,3.0,98,0.00,,,0.00,Rainwise IP-100,2013-10-01 02:53:00,
2013-09-30 22:55:00,52.0,51.0,29.42,West,270,3.0,3.0,98,0.00,,,0.00,Rainwise IP-100,2013-10-01 02:55:00,
2013-09-30 22:58:00,52.0,52.0,29.42,West,270,3.0,4.0,99,0.00,,,0.00,Rainwise IP-100,2013-10-01 02:58:00,
2013-09-30 23:00:00,52.0,52.0,29.42,West,270,4.0,4.0,99,0.00,,,0.00,Rainwise IP-100,2013-10-01 03:00:00,
2013-09-30 23:01:00,52.0,52.0,29.42,West,270,4.0,4.0,99,0.00,,,0.00,Rainwise IP-100,2013-10-01 03:01:00,
2013-09-30 23:03:00,52.0,52.0,29.42,West,270,0.0,4.0,99,0.00,,,0.00,Rainwise IP-100,2013-10-01 03:03:00,
2013-09-30 23:04:00,52.0,52.0,29.42,North,360,0.0,4.0,99,0.00,,,0.00,Rainwise IP-100,2013-10-01 03:04:00,
2013-09-30 23:05:00,52.0,52.0,29.42,North,360,3.0,4.0,99,0.00,,,0.00,Rainwise IP-100,2013-10-01 03:05:00,
2013-09-30 23:06:00,52.0,52.0,29.42,North,360,1.0,4.0,99,0.00,,,0.00,Rainwise IP-100,2013-10-01 03:06:00,
2013-09-30 23:08:00,52.0,52.0,29.42,North,360,2.0,3.0,99,0.00,,,0.00,Rainwise IP-100,2013-10-01 03:08:00,
2013-09-30 23:09:00,52.0,51.0,29.41,North,360,1.0,3.0,98,0.00,,,0.00,Rainwise IP-100,2013-10-01 03:09:00,
2013-09-30 23:10:00,52.0,52.0,29.41,North,360,1.0,3.0,99,0.00,,,0.00,Rainwise IP-100,2013-10-01 03:10:00,
2013-09-30 23:11:00,52.0,52.0,29.41,North,360,0.0,3.0,99,0.00,,,0.00,Rainwise IP-100,2013-10-01 03:11:00,
2013-09-30 23:13:00,52.0,52.0,29.41,North,360,0.0,3.0,99,0.00,,,0.00,Rainwise IP-100,2013-10-01 03:13:00,
2013-09-30 23:14:00,51.0,51.0,29.41,North,360,0.0,2.0,99,0.00,,,0.00,Rainwise IP-100,2013-10-01 03:14:00,
2013-09-30 23:15:00,51.0,51.0,29.41,West,270,1.0,2.0,100,0.00,,,0.00,Rainwise IP-100,2013-10-01 03:15:00,
2013-09-30 23:16:00,51.0,51.0,29.41,West,270,0.0,3.0,99,0.00,,,0.00,Rainwise IP-100,2013-10-01 03:16:00,
2013-09-30 23:17:00,51.0,51.0,29.41,West,270,0.0,3.0,99,0.00,,,0.00,Rainwise IP-100,2013-10-01 03:17:00,
2013-09-30 23:18:00,51.0,51.0,29.41,West,270,0.0,3.0,99,0.00,,,0.00,Rainwise IP-100,2013-10-01 03:18:00,
2013-09-30 23:20:00,52.0,52.0,29.41,South,180,2.0,3.0,99,0.00,,,0.00,Rainwise IP-100,2013-10-01 03:20:00,
2013-09-30 23:21:00,52.0,52.0,29.41,South,180,1.0,3.0,99,0.00,,,0.00,Rainwise IP-100,2013-10-01 03:21:00,
2013-09-30 23:22:00,52.0,52.0,29.41,South,180,0.0,3.0,99,0.00,,,0.00,Rainwise IP-100,2013-10-01 03:22:00,
2013-09-30 23:23:00,51.0,51.0,29.41,South,180,0.0,3.0,99,0.00,,,0.00,Rainwise IP-100,2013-10-01 03:23:00,
2013-09-30 23:25:00,51.0,51.0,29.41,South,180,0.0,3.0,99,0.00,,,0.00,Rainwise IP-100,2013-10-01 03:25:00,
2013-09-30 23:26:00,51.0,51.0,29.41,South,180,0.0,1.0,99,0.00,,,0.00,Rainwise IP-100,2013-10-01 03:26:00,
2013-09-30 23:27:00,51.0,51.0,29.41,South,180,0.0,0.0,99,0.00,,,0.00,Rainwise IP-100,2013-10-01 03:27:00,
2013-09-30 23:28:00,51.0,51.0,29.41,South,180,0.0,0.0,99,0.00,,,0.00,Rainwise IP-100,2013-10-01 03:28:00,
2013-09-30 23:30:00,51.0,51.0,29.41,South,180,0.0,0.0,99,0.00,,,0.00,Rainwise IP-100,2013-10-01 03:30:00,
2013-09-30 23:31:00,51.0,51.0,29.41,South,180,0.0,0.0,99,0.00,,,0.00,Rainwise IP-100,2013-10-01 03:31:00,
2013-09-30 23:32:00,51.0,51.0,29.41,South,180,0.0,0.0,99,0.00,,,0.00,Rainwise IP-100,2013-10-01 03:32:00,
2013-09-30 23:34:00,51.0,51.0,29.41,East,90,1.0,0.0,99,0.00,,,0.00,Rainwise IP-100,2013-10-01 03:34:00,
2013-09-30 23:35:00,51.0,51.0,29.41,East,90,0.0,1.0,99,0.00,,,0.00,Rainwise IP-100,2013-10-01 03:35:00,
2013-09-30 23:36:00,51.0,51.0,29.41,East,90,0.0,1.0,99,0.00,,,0.00,Rainwise IP-100,2013-10-01 03:36:00,
2013-09-30 23:37:00,51.0,51.0,29.41,East,90,0.0,1.0,99,0.00,,,0.00,Rainwise IP-100,2013-10-01 03:37:00,
2013-09-30 23:39:00,52.0,51.0,29.41,East,90,1.0,2.0,98,0.00,,,0.00,Rainwise IP-100,2013-10-01 03:39:00,
2013-09-30 23:41:00,51.0,51.0,29.41,East,90,1.0,2.0,99,0.00,,,0.00,Rainwise IP-100,2013-10-01 03:41:00,
2013-09-30 23:42:00,51.0,51.0,29.41,East,90,0.0,2.0,99,0.00,,,0.00,Rainwise IP-100,2013-10-01 03:42:00,
2013-09-30 23:44:00,51.0,51.0,29.41,East,90,0.0,2.0,99,0.00,,,0.00,Rainwise IP-100,2013-10-01 03:44:00,
2013-09-30 23:46:00,51.0,51.0,29.41,East,90,0.0,2.0,99,0.00,,,0.00,Rainwise IP-100,2013-10-01 03:46:00,
2013-09-30 23:47:00,51.0,51.0,29.41,East,90,0.0,1.0,99,0.00,,,0.00,Rainwise IP-100,2013-10-01 03:47:00,
2013-09-30 23:49:00,52.0,51.0,29.40,East,90,2.0,3.0,98,0.00,,,0.00,Rainwise IP-100,2013-10-01 03:49:00,
2013-09-30 23:51:00,51.0,50.0,29.40,East,90,2.0,3.0,98,0.00,,,0.00,Rainwise IP-100,2013-10-01 03:51:00,
2013-09-30 23:52:00,51.0,50.0,29.40,East,90,2.0,3.0,98,0.00,,,0.00,Rainwise IP-100,2013-10-01 03:52:00,
2013-09-30 23:53:00,51.0,50.0,29.40,East,90,2.0,3.0,98,0.00,,,0.00,Rainwise IP-100,2013-10-01 03:53:00,
2013-09-30 23:54:00,51.0,50.0,29.40,East,90,1.0,3.0,98,0.00,,,0.00,Rainwise IP-100,2013-10-01 03:54:00,
2013-09-30 23:57:00,51.0,51.0,29.40,East,90,1.0,3.0,99,0.00,,,0.00,Rainwise IP-100,2013-10-01 03:57:00,
2013-09-30 23:58:00,51.0,51.0,29.40,East,90,1.0,3.0,99,0.00,,,0.00,Rainwise IP-100,2013-10-01 03:58:00,
2013-09-30 23:59:00,52.0,51.0,29.40,East,90,0.0,2.0,98,0.00,,,0.00,Rainwise IP-100,2013-10-01 03:59:00,